                ,  0.250,  0.350,  0.450,  0.550,  0.650,  0.750,  0.850,  0.950,  1.050,  1.150,  1.250,  1.350,  1.450,  1.550,  1.650,  1.750,  1.850,  1.950,  2.050,  2.150,  2.250,  2.350,  2.450,  2.550,  2.650,  2.750,  2.850,  2.950,  3.050,  3.150,  3.250,  3.350,  3.450,  3.550,  3.650,  3.750,  3.850,  3.950,  4.050,  4.150,  4.250,  4.350,  4.450,  4.550,  4.650,  4.750,  4.850,  4.950,  5.050,  5.150,  5.250,  5.350,  5.450,  5.550,  5.650,  5.750,  5.850,  5.950,  6.050,  6.150,  6.250,  6.350,  6.450,  6.550,  6.650,  6.750,  6.850,  6.950,  7.050,  7.150,  7.250,  7.350,  7.450,  7.550,  7.650,  7.750,  7.850,  7.950,  8.050,  8.150,  8.250,  8.350,  8.450,  8.550,  8.650,  8.750,  8.850,  8.950,  9.050,  9.150,  9.250,  9.350,  9.450,  9.550,  9.650,  9.750,  9.850,  9.950
2010/01/12 00:00,    0.0,    0.0,    0.1,    0.2,    0.1,    0.1,    0.0,    0.0,    0.0,    0.1,    0.0,    0.0,   -0.0,   -0.1,   -0.0,   -0.1,   -0.1,   -0.1,   -0.2,   -0.2,   -0.3,   -0.3,   -0.1,    0.0,    0.0,   -0.1,   -0.1,   -0.4,   -0.3,    0.0,    0.0,    0.1,    0.1,    0.1,    0.3,    0.1,    0.1,    0.1,    0.1,    0.0,   -0.0,   -0.1,    0.1,    0.0,    0.0,    0.1,   -0.1,    0.2,    0.6,  999.0,   -0.3,   -0.4,    0.0,    0.1,  999.0,  999.0,  999.0,  999.0,  999.0,  999.0,  999.0,  999.0,  999.0,  999.0,  999.0,  999.0,  999.0,  999.0,  999.0,  999.0,   -0.1,  999.0,  999.0,   -0.1,  999.0,  999.0,  999.0,  999.0,  999.0,  999.0,  999.0,  999.0,  999.0,  999.0,  999.0,  999.0,  999.0,  999.0,  999.0,  999.0,  999.0,  999.0,  999.0,  999.0,  999.0,  999.0,  999.0,  999.0
2010/01/12 00:10,   -0.0,    0.0,    0.1,    0.2,    0.1,    0.0,    0.1,    0.0,    0.0,    0.1,    0.0,    0.0,    0.0,    0.0,   -0.0,   -0.0,   -0.0,   -0.0,   -0.1,    0.0,   -0.1,    0.0,    0.1,    0.1,    0.1,    0.2,    0.5,  999.0,  999.0,    0.3,    0.5,    0.7,    0.5,    0.4,    0.4,    0.1,    0.3,    0.3,    0.3,    0.1,    0.1,  999.0,  999.0,  999.0,   -0.1,   -0.2,   -0.0,   -0.3,   -0.2,   -0.2,   -0.4,  999.0,  999.0,  999.0,  999.0,  999.0,  999.0,  999.0,  999.0,  999.0,  999.0,  999.0,  999.0,  999.0,  999.0,  999.0,  999.0,  999.0,  999.0,  999.0,  999.0,  999.0,  999.0,  999.0,  999.0,  999.0,  999.0,  999.0,  999.0,  999.0,  999.0,  999.0,  999.0,  999.0,  999.0,  999.0,  999.0,  999.0,  999.0,  999.0,  999.0,  999.0,  999.0,  999.0,  999.0,  999.0,  999.0,  999.0
2010/01/12 00:20,   -3.6,   -3.1,   -3.4,   -3.4,   -3.4,   -3.5,   -3.5,   -3.6,   -3.6,   -3.6,   -3.6,   -3.6,   -3.5,   -3.5,   -3.4,   -4.2,   -4.3,   -4.3,   -4.0,   -5.0,   -5.1,   -5.0,   -4.8,   -5.1,   -5.0,   -5.0,   -4.6,   -4.3,   -4.6,   -4.5,   -3.9,   -3.8,   -3.9,   -6.5,   -4.8,   -3.9,   -3.7,   -3.9,   -3.4,   -1.6,   -2.1,  999.0,   -1.5,   -0.9,   -1.0,   -0.8,  999.0,   -0.6,   -0.7,   -0.6,   -0.6,   -0.5,   -0.4,  999.0,  999.0,  999.0,  999.0,  999.0,  999.0,  999.0,  999.0,  999.0,  999.0,  999.0,  999.0,  999.0,  999.0,  999.0,  999.0,  999.0,  999.0,  999.0,  999.0,  999.0,  999.0,  999.0,  999.0,  999.0,  999.0,  999.0,  999.0,  999.0,  999.0,  999.0,  999.0,  999.0,  999.0,  999.0,  999.0,  999.0,  999.0,  999.0,  999.0,  999.0,  999.0,  999.0,  999.0,  999.0
2010/01/12 00:30,   -6.5,   -6.4,   -6.4,   -6.5,   -6.6,   -6.5,   -6.5,   -6.5,   -6.5,   -6.6,   -6.6,   -6.7,   -6.7,   -6.7,   -6.5,   -6.4,   -6.3,   -6.3,   -6.3,   -6.3,   -6.3,   -6.4,   -6.4,   -6.6,   -6.4,   -6.5,   -6.6,   -7.0,   -7.0,   -7.0,   -7.0,   -6.9,   -7.0,   -6.7,   -6.8,   -7.0,   -6.6,   -6.5,   -5.7,  999.0,  999.0,  999.0,   -1.7,   -1.3,   -1.4,   -1.3,   -1.2,   -1.2,   -1.1,   -1.1,   -1.0,   -0.9,   -0.9,   -0.8,   -0.8,   -0.6,   -0.6,   -0.6,  999.0,  999.0,  999.0,  999.0,  999.0,  999.0,  999.0,  999.0,  999.0,  999.0,  999.0,  999.0,  999.0,  999.0,  999.0,  999.0,  999.0,  999.0,  999.0,  999.0,  999.0,  999.0,  999.0,  999.0,  999.0,  999.0,  999.0,  999.0,  999.0,  999.0,  999.0,  999.0,  999.0,  999.0,  999.0,  999.0,  999.0,  999.0,  999.0,  999.0
2010/01/12 00:40,   -6.6,   -6.6,   -6.2,   -6.4,   -6.3,   -6.2,   -6.2,   -6.1,   -6.2,   -6.0,   -6.0,   -5.9,   -5.8,   -5.8,   -5.7,   -5.7,   -5.6,   -5.5,   -5.4,   -5.3,   -5.3,   -5.2,   -5.0,   -5.0,   -4.9,   -5.0,   -4.9,   -4.8,   -4.8,   -4.7,   -4.7,   -4.5,   -4.5,   -4.5,   -4.3,   -4.2,   -4.3,   -4.3,   -4.0,   -3.6,   -3.1,   -2.5,   -1.6,   -1.4,   -1.3,   -1.2,   -1.0,   -0.7,   -0.7,   -0.9,   -0.7,   -0.4,  999.0,  999.0,  999.0,  999.0,  999.0,  999.0,  999.0,  999.0,  999.0,  999.0,  999.0,  999.0,  999.0,  999.0,  999.0,  999.0,  999.0,  999.0,  999.0,  999.0,  999.0,  999.0,  999.0,  999.0,  999.0,  999.0,  999.0,  999.0,  999.0,  999.0,  999.0,  999.0,  999.0,  999.0,  999.0,  999.0,  999.0,  999.0,  999.0,  999.0,  999.0,  999.0,  999.0,  999.0,  999.0,  999.0
2010/01/12 00:50,   -5.3,   -5.2,   -5.1,   -5.2,   -5.2,   -5.2,   -5.2,   -5.1,   -5.0,   -5.0,   -5.0,   -4.9,   -4.9,   -4.9,   -5.1,   -5.2,   -5.1,   -4.9,   -4.8,   -4.7,   -4.5,   -4.5,   -4.4,   -4.4,   -4.3,   -4.3,   -4.3,   -4.4,   -4.4,   -4.2,   -4.2,   -4.1,   -4.1,   -4.0,   -3.9,   -3.9,   -3.8,   -3.6,   -3.5,   -3.3,   -3.2,   -2.7,   -1.6,   -1.1,   -0.9,   -0.8,   -0.9,   -0.4,   -0.5,  999.0,    0.1,    0.0,    0.0,  999.0,  999.0,  999.0,  999.0,  999.0,  999.0,  999.0,  999.0,  999.0,  999.0,  999.0,  999.0,  999.0,  999.0,  999.0,  999.0,  999.0,  999.0,  999.0,  999.0,  999.0,  999.0,  999.0,  999.0,  999.0,  999.0,  999.0,  999.0,  999.0,  999.0,  999.0,  999.0,  999.0,  999.0,  999.0,  999.0,  999.0,  999.0,  999.0,  999.0,  999.0,  999.0,  999.0,  999.0,  999.0
2010/01/12 01:00,    0.1,    0.1,    0.1,   -0.7,   -0.9,   -0.9,    0.1,   -0.4,    0.1,    0.1,  999.0,    0.1,    0.1,  999.0,    0.1,    0.3,    0.3,    0.1,    0.3,    0.2,    0.2,   -1.9,   -0.9,   -0.9,    0.3,  999.0,  999.0,  999.0,    0.3,    0.2,    0.1,    0.1,    0.4,    0.2,  999.0,  999.0,  999.0,  999.0,    0.3,  999.0,  999.0,  999.0,  999.0,  999.0,  999.0,   -0.2,   -0.1,    0.2,    0.0,    0.1,    0.1,  999.0,   -0.1,    0.0,    0.2,  999.0,  999.0,  999.0,  999.0,  999.0,  999.0,  999.0,  999.0,  999.0,  999.0,  999.0,  999.0,  999.0,  999.0,  999.0,  999.0,  999.0,  999.0,  999.0,  999.0,  999.0,  999.0,  999.0,  999.0,  999.0,  999.0,  999.0,  999.0,  999.0,  999.0,  999.0,  999.0,  999.0,  999.0,  999.0,  999.0,  999.0,  999.0,  999.0,  999.0,  999.0,  999.0,  999.0
2010/01/12 01:10,    0.1,    0.0,    0.1,    0.2,    0.1,    0.1,    0.1,    0.0,    0.0,    0.1,    0.1,    0.0,    0.0,    0.0,    0.0,    0.1,    0.1,    0.0,    0.2,    0.2,    0.4,  999.0,    0.2,    0.4,    0.4,    0.3,    0.4,  999.0,    0.2,    0.4,    0.5,    0.4,  999.0,    0.3,    0.5,    0.2,    0.0,    0.2,    0.1,  999.0,  999.0,  999.0,  999.0,  999.0,  999.0,  999.0,   -0.0,  999.0,  999.0,    0.1,   -0.1,    0.1,   -0.0,    0.0,    0.2,    0.2,  999.0,  999.0,  999.0,  999.0,  999.0,  999.0,  999.0,  999.0,  999.0,    0.1,  999.0,  999.0,  999.0,   -0.0,  999.0,  999.0,  999.0,  999.0,  999.0,  999.0,  999.0,  999.0,  999.0,  999.0,  999.0,  999.0,  999.0,  999.0,  999.0,  999.0,  999.0,  999.0,  999.0,  999.0,  999.0,  999.0,  999.0,  999.0,  999.0,  999.0,  999.0,  999.0
2010/01/12 01:20,    0.1,    0.1,    0.1,    0.2,    0.1,    0.1,    0.1,    0.1,    0.1,    0.1,    0.1,    0.0,    0.1,    0.0,    0.0,    0.2,    0.1,    0.1,    0.1,    0.2,    0.1,    0.1,    0.2,    0.2,    0.2,    0.3,    0.3,    0.3,    0.3,    0.3,    0.4,    0.4,    0.4,    0.3,    0.3,    0.3,  999.0,  999.0,  999.0,  999.0,  999.0,  999.0,  999.0,  999.0,  999.0,    0.0,  999.0,    0.0,    0.1,  999.0,  999.0,    0.2,   -0.0,  999.0,  999.0,  999.0,  999.0,  999.0,  999.0,  999.0,  999.0,   -0.0,  999.0,  999.0,  999.0,  999.0,  999.0,  999.0,  999.0,  999.0,  999.0,  999.0,  999.0,  999.0,  999.0,  999.0,  999.0,  999.0,  999.0,  999.0,  999.0,  999.0,  999.0,  999.0,  999.0,  999.0,  999.0,  999.0,  999.0,  999.0,  999.0,  999.0,  999.0,  999.0,  999.0,  999.0,  999.0,  999.0
2010/01/12 01:30,    0.1,    0.0,    0.1,    0.2,    0.2,    0.1,    0.1,    0.1,    0.1,    0.1,    0.1,    0.0,    0.1,    0.0,    0.1,    0.3,    0.4,    0.4,    0.4,    0.3,    0.4,    0.3,    0.3,    0.3,    0.3,    0.3,    0.3,    0.3,    0.2,    0.2,    0.2,    0.3,    0.2,    0.2,    0.2,    0.5,  999.0,  999.0,  999.0,  999.0,  999.0,  999.0,  999.0,  999.0,    0.4,    0.5,    0.6,    0.5,    0.3,    0.5,  999.0,    0.5,  999.0,    0.4,  999.0,  999.0,    0.6,  999.0,  999.0,  999.0,  999.0,  999.0,  999.0,  999.0,  999.0,  999.0,  999.0,  999.0,  999.0,  999.0,  999.0,  999.0,  999.0,  999.0,  999.0,  999.0,  999.0,  999.0,  999.0,  999.0,  999.0,  999.0,  999.0,  999.0,  999.0,  999.0,  999.0,  999.0,  999.0,  999.0,  999.0,  999.0,  999.0,  999.0,  999.0,  999.0,  999.0,  999.0
2010/01/12 01:40,    0.1,    0.0,    0.1,    0.2,    0.1,    0.1,    0.0,    0.0,    0.0,    0.1,    0.0,    0.0,    0.0,    0.1,    0.1,    0.3,    0.6,    0.4,    0.4,    0.3,    0.2,    0.3,    0.3,    0.2,    0.2,    0.1,    0.2,    0.2,    0.1,    0.2,    0.1,    0.2,    0.2,    0.3,    0.2,    0.2,   -0.1,  999.0,  999.0,    0.2,    0.4,  999.0,  999.0,  999.0,  999.0,  999.0,    0.3,    0.2,  999.0,  999.0,  999.0,    0.1,  999.0,  999.0,    0.6,  999.0,    0.5,  999.0,  999.0,  999.0,  999.0,  999.0,  999.0,  999.0,    0.2,  999.0,  999.0,  999.0,  999.0,  999.0,  999.0,  999.0,  999.0,  999.0,  999.0,  999.0,  999.0,  999.0,  999.0,  999.0,  999.0,  999.0,  999.0,  999.0,  999.0,  999.0,  999.0,  999.0,  999.0,  999.0,  999.0,  999.0,  999.0,  999.0,  999.0,  999.0,  999.0,  999.0
2010/01/12 01:50,    0.1,    0.1,    0.2,    0.2,    0.2,    0.1,    0.1,    0.1,    0.0,    0.1,    0.0,    0.0,    0.0,   -0.0,    0.0,    0.1,   -0.0,    0.1,    0.1,    0.1,    0.1,    0.1,    0.1,    0.1,    0.1,    0.1,    0.1,    0.1,    0.1,    0.2,    0.2,    0.2,    0.2,    0.2,    0.2,    0.1,    0.1,    0.1,    0.2,    0.2,    0.4,  999.0,    0.1,    0.2,  999.0,  999.0,  999.0,    0.3,    0.3,  999.0,    0.3,  999.0,  999.0,  999.0,  999.0,  999.0,    0.4,  999.0,  999.0,  999.0,  999.0,  999.0,  999.0,  999.0,  999.0,  999.0,  999.0,  999.0,  999.0,  999.0,  999.0,  999.0,  999.0,  999.0,  999.0,  999.0,  999.0,  999.0,  999.0,  999.0,  999.0,  999.0,  999.0,  999.0,  999.0,  999.0,  999.0,  999.0,  999.0,  999.0,  999.0,  999.0,  999.0,  999.0,  999.0,  999.0,  999.0,  999.0
2010/01/12 02:00,    0.1,    0.0,    0.1,    0.2,    0.1,    0.0,    0.1,    0.0,    0.0,    0.0,    0.0,   -0.0,    0.0,   -0.0,    0.0,    0.1,  999.0,    0.2,    0.3,    0.2,    0.2,    0.2,    0.1,    0.2,    0.1,   -0.0,    0.1,    0.1,    0.1,    0.2,    0.1,    0.1,    0.1,    0.2,    0.3,    0.3,  999.0,  999.0,  999.0,  999.0,  999.0,  999.0,  999.0,  999.0,  999.0,  999.0,  999.0,  999.0,  999.0,  999.0,  999.0,  999.0,  999.0,  999.0,  999.0,  999.0,  999.0,  999.0,  999.0,  999.0,  999.0,  999.0,  999.0,  999.0,  999.0,  999.0,  999.0,  999.0,  999.0,  999.0,  999.0,  999.0,  999.0,  999.0,  999.0,  999.0,  999.0,  999.0,  999.0,  999.0,  999.0,  999.0,  999.0,  999.0,  999.0,  999.0,  999.0,  999.0,  999.0,  999.0,  999.0,  999.0,  999.0,  999.0,  999.0,  999.0,  999.0,  999.0
2010/01/12 02:10,    0.1,    0.0,    0.1,    0.2,    0.1,    0.1,    0.1,    0.1,    0.0,    0.1,    0.0,    0.0,    0.0,    0.1,    0.0,    0.1,    0.2,    0.2,    0.2,    0.3,    0.4,    0.3,    0.3,    0.3,    0.3,    0.3,    0.3,    0.2,    0.3,    0.3,    0.3,    0.3,    0.3,    0.3,  999.0,    0.3,  999.0,    0.1,  999.0,  999.0,  999.0,  999.0,  999.0,  999.0,  999.0,  999.0,  999.0,    0.1,  999.0,  999.0,  999.0,  999.0,  999.0,  999.0,  999.0,  999.0,   -0.1,  999.0,  999.0,  999.0,  999.0,  999.0,  999.0,  999.0,  999.0,  999.0,  999.0,  999.0,  999.0,  999.0,  999.0,  999.0,  999.0,  999.0,  999.0,  999.0,  999.0,  999.0,  999.0,  999.0,  999.0,  999.0,  999.0,  999.0,  999.0,  999.0,  999.0,  999.0,  999.0,  999.0,  999.0,  999.0,  999.0,  999.0,  999.0,  999.0,  999.0,  999.0
2010/01/12 02:20,    0.1,    0.0,    0.1,    0.3,    0.1,    0.0,    0.0,    0.0,    0.0,    0.1,   -0.0,    0.0,    0.0,   -0.0,   -0.0,   -0.0,    0.1,    0.1,   -0.1,    0.1,    0.0,    0.1,   -0.0,    0.1,    0.2,    0.2,    0.1,    0.0,    0.1,   -0.0,   -0.0,   -0.1,  999.0,  999.0,  999.0,    0.1,   -0.1,    0.0,   -0.1,  999.0,  999.0,   -0.0,  999.0,  999.0,  999.0,  999.0,  999.0,  999.0,  999.0,  999.0,  999.0,  999.0,  999.0,  999.0,  999.0,  999.0,   -0.3,  999.0,  999.0,  999.0,  999.0,  999.0,  999.0,  999.0,  999.0,  999.0,  999.0,  999.0,  999.0,  999.0,  999.0,  999.0,  999.0,  999.0,  999.0,  999.0,  999.0,  999.0,  999.0,  999.0,  999.0,  999.0,  999.0,  999.0,  999.0,  999.0,  999.0,  999.0,  999.0,  999.0,  999.0,  999.0,  999.0,  999.0,  999.0,  999.0,  999.0,  999.0
2010/01/12 02:30,    0.0,    0.0,    0.1,    0.2,    0.1,    0.1,    0.1,    0.1,    0.0,    0.1,    0.0,    0.0,    0.0,    0.1,    0.0,    0.2,    0.2,    0.1,    0.1,    0.1,   -0.1,   -0.1,    0.1,   -0.0,   -0.1,    0.1,    0.2,    0.2,    0.4,    0.1,    0.1,    0.1,    0.2,   -0.0,    0.0,    0.1,    0.0,    0.1,  999.0,  999.0,  999.0,  999.0,  999.0,  999.0,  999.0,  999.0,  999.0,  999.0,  999.0,  999.0,  999.0,  999.0,  999.0,  999.0,  999.0,  999.0,  999.0,  999.0,  999.0,  999.0,  999.0,  999.0,  999.0,  999.0,  999.0,  999.0,  999.0,  999.0,  999.0,  999.0,  999.0,  999.0,  999.0,  999.0,  999.0,  999.0,  999.0,  999.0,  999.0,  999.0,  999.0,  999.0,  999.0,  999.0,  999.0,  999.0,  999.0,  999.0,  999.0,  999.0,  999.0,  999.0,  999.0,  999.0,  999.0,  999.0,  999.0,  999.0
2010/01/12 02:40,    0.1,    0.1,    0.1,    0.2,    0.2,    0.1,    0.1,    0.1,    0.0,    0.0,    0.0,    0.0,    0.0,    0.0,    0.0,    0.0,    0.1,    0.0,   -0.0,   -0.1,   -0.0,   -0.1,   -0.1,   -0.1,    0.0,    0.0,    0.1,    0.1,    0.3,    0.3,    0.3,    0.4,    0.3,    0.3,    0.4,  999.0,    0.3,    0.3,    0.4,  999.0,    0.2,  999.0,  999.0,  999.0,  999.0,  999.0,  999.0,  999.0,  999.0,  999.0,  999.0,  999.0,  999.0,  999.0,  999.0,  999.0,  999.0,  999.0,  999.0,  999.0,  999.0,  999.0,  999.0,  999.0,  999.0,  999.0,  999.0,  999.0,  999.0,  999.0,  999.0,  999.0,  999.0,  999.0,  999.0,  999.0,  999.0,  999.0,  999.0,  999.0,  999.0,  999.0,  999.0,  999.0,  999.0,  999.0,  999.0,  999.0,  999.0,  999.0,  999.0,  999.0,  999.0,  999.0,  999.0,  999.0,  999.0,  999.0
2010/01/12 02:50,    0.1,    0.0,    0.1,    0.2,    0.1,    0.0,    0.0,    0.1,    0.0,    0.1,    0.0,    0.0,    0.0,    0.0,    0.0,    0.1,    0.1,    0.2,    0.2,    0.1,   -0.1,    0.1,    0.1,    0.1,    0.1,    0.2,    0.2,    0.2,    0.2,    0.1,    0.1,    0.1,    0.1,    0.2,    0.1,    0.1,    0.1,    0.0,    0.1,   -0.0,    0.1,    0.0,    0.3,  999.0,  999.0,    1.7,  999.0,    1.3,  999.0,  999.0,  999.0,  999.0,  999.0,  999.0,  999.0,  999.0,  999.0,  999.0,  999.0,  999.0,  999.0,  999.0,  999.0,  999.0,  999.0,  999.0,  999.0,  999.0,  999.0,  999.0,  999.0,  999.0,  999.0,  999.0,  999.0,  999.0,  999.0,  999.0,  999.0,  999.0,  999.0,  999.0,  999.0,  999.0,  999.0,  999.0,  999.0,  999.0,  999.0,  999.0,  999.0,  999.0,  999.0,  999.0,  999.0,  999.0,  999.0,  999.0
2010/01/12 03:00,   -2.0,   -2.7,   -2.0,   -2.3,   -2.3,   -2.4,   -2.2,   -2.2,   -2.1,   -2.1,   -2.5,   -2.0,   -1.8,   -1.8,   -1.7,   -2.3,   -3.7,   -4.2,   -4.4,   -3.2,   -2.3,   -2.3,   -2.2,   -2.3,   -2.3,   -2.4,   -2.4,   -2.3,   -2.3,   -2.4,   -2.4,   -3.1,   -2.9,   -2.9,   -2.9,   -2.9,   -2.8,   -2.9,   -2.9,   -2.8,   -2.7,   -2.7,   -2.6,   -2.7,   -2.4,   -2.1,   -2.6,   -2.2,   -1.9,   -1.4,   -1.1,   -1.0,   -0.9,   -0.7,   -0.4,   -0.4,   -0.1,   -0.2,  999.0,  999.0,  999.0,  999.0,  999.0,  999.0,  999.0,  999.0,  999.0,  999.0,  999.0,  999.0,  999.0,  999.0,  999.0,  999.0,  999.0,  999.0,  999.0,  999.0,  999.0,  999.0,  999.0,  999.0,  999.0,  999.0,  999.0,  999.0,  999.0,  999.0,  999.0,  999.0,  999.0,  999.0,  999.0,  999.0,  999.0,  999.0,  999.0,  999.0
2010/01/12 03:10,   -0.3,   -0.3,   -0.2,   -0.2,   -0.2,   -0.5,    0.1,   -0.5,   -0.2,   -0.1,    0.1,   -0.7,   -0.7,   -0.6,   -0.6,   -0.4,   -0.5,  999.0,  999.0,  999.0,   -0.3,   -0.3,    0.0,   -0.0,    0.0,    0.1,    0.2,    0.1,    0.2,    0.1,   -0.0,    0.0,    0.3,   -1.1,  999.0,  999.0,   -1.3,   -0.5,   -0.5,   -0.8,   -0.5,   -1.2,   -0.8,   -0.8,   -1.1,  999.0,   -1.5,   -0.3,   -1.5,   -1.1,   -0.8,   -0.7,   -0.6,   -0.5,   -0.4,   -0.8,   -0.8,  999.0,  999.0,  999.0,  999.0,  999.0,  999.0,  999.0,  999.0,  999.0,  999.0,  999.0,  999.0,  999.0,  999.0,  999.0,  999.0,  999.0,  999.0,  999.0,  999.0,  999.0,  999.0,  999.0,  999.0,  999.0,  999.0,  999.0,  999.0,  999.0,  999.0,  999.0,  999.0,  999.0,  999.0,  999.0,  999.0,  999.0,  999.0,  999.0,  999.0,  999.0
2010/01/12 03:20,    0.0,   -1.4,   -0.6,   -0.6,    0.1,    0.1,    0.1,    0.1,    0.0,    0.1,    0.1,    0.0,    0.0,    0.0,    0.0,    0.1,    0.0,    0.1,    0.1,    0.0,   -0.2,   -0.2,   -0.1,   -2.4,   -3.0,   -4.1,   -4.0,   -3.7,   -3.1,   -3.4,   -4.2,   -4.2,   -4.0,   -4.1,   -3.8,   -3.6,   -3.5,   -3.8,   -3.6,   -3.3,   -3.3,   -2.8,   -3.0,   -2.4,   -2.1,   -1.9,   -1.7,   -1.5,   -1.8,   -1.5,   -1.2,   -1.3,   -1.0,   -1.0,   -0.8,   -0.7,   -0.5,   -0.5,   -0.3,    0.0,  999.0,  999.0,  999.0,  999.0,  999.0,  999.0,  999.0,  999.0,  999.0,  999.0,  999.0,  999.0,  999.0,  999.0,  999.0,  999.0,  999.0,  999.0,  999.0,  999.0,  999.0,  999.0,  999.0,  999.0,  999.0,  999.0,  999.0,  999.0,  999.0,  999.0,  999.0,  999.0,  999.0,  999.0,  999.0,  999.0,  999.0,  999.0
2010/01/12 03:30,   -2.9,   -2.6,   -2.1,   -2.0,   -2.0,   -2.1,   -2.1,   -1.9,   -1.9,   -1.8,   -2.0,   -1.9,   -2.0,   -2.1,   -2.1,   -1.9,   -2.4,   -2.3,   -2.3,   -2.4,   -2.5,   -2.6,   -2.9,   -2.6,   -2.6,   -3.3,   -3.3,   -3.8,   -3.8,   -4.1,   -3.8,   -3.8,   -4.2,   -4.2,   -4.1,   -4.1,   -4.1,   -4.1,   -4.2,   -4.2,   -4.1,   -4.1,   -3.8,   -3.4,   -3.2,   -2.8,   -2.7,   -2.9,   -2.6,   -2.7,   -2.5,   -2.3,   -2.0,   -1.6,   -1.4,   -1.2,   -1.1,   -0.9,   -0.8,   -0.7,   -0.9,  999.0,  999.0,   -0.1,  999.0,  999.0,  999.0,  999.0,  999.0,  999.0,  999.0,  999.0,  999.0,  999.0,  999.0,  999.0,  999.0,  999.0,  999.0,  999.0,  999.0,  999.0,  999.0,  999.0,  999.0,  999.0,  999.0,  999.0,  999.0,  999.0,  999.0,  999.0,  999.0,  999.0,  999.0,  999.0,  999.0,  999.0
2010/01/12 03:40,   -3.6,   -3.8,   -3.8,   -4.3,   -3.3,   -3.2,   -3.2,   -3.7,   -3.6,   -3.5,   -3.3,   -3.3,   -3.7,   -3.8,   -3.8,   -3.8,   -3.9,   -4.0,   -3.8,   -3.7,   -3.6,   -3.4,   -3.3,   -3.5,   -3.3,   -3.1,   -3.3,   -3.1,   -3.0,   -2.7,   -2.7,   -2.3,   -2.3,   -2.8,   -2.2,   -2.6,   -2.3,   -2.8,   -2.2,   -1.9,   -2.0,   -1.7,   -1.5,   -1.3,   -1.1,   -1.2,   -1.2,   -1.2,   -1.1,   -1.2,   -0.8,   -2.3,   -1.1,   -0.7,   -1.0,   -1.0,   -0.9,   -0.8,   -0.9,   -1.4,   -0.9,   -0.8,  999.0,  999.0,  999.0,  999.0,  999.0,  999.0,  999.0,  999.0,  999.0,  999.0,  999.0,  999.0,  999.0,  999.0,  999.0,  999.0,  999.0,  999.0,  999.0,  999.0,  999.0,    1.0,  999.0,  999.0,  999.0,  999.0,  999.0,  999.0,  999.0,  999.0,  999.0,  999.0,  999.0,  999.0,  999.0,  999.0
2010/01/12 03:50,   -3.7,   -3.4,   -3.0,   -3.3,   -3.5,   -3.4,   -3.3,   -2.8,   -3.3,   -3.3,   -3.5,   -3.5,   -3.6,   -3.7,   -3.6,   -3.6,   -3.6,   -3.5,   -3.5,   -3.4,   -3.3,   -3.2,   -3.1,   -3.1,   -3.1,   -3.1,   -3.1,   -3.1,   -2.9,   -2.9,   -3.1,   -3.0,   -3.3,   -3.3,   -3.0,   -2.8,   -2.8,   -2.8,   -3.0,   -3.0,   -3.0,   -2.9,   -2.7,   -2.8,   -2.4,   -2.2,   -1.8,   -1.5,   -1.3,   -1.1,   -1.0,   -0.8,   -0.3,   -0.1,   -0.3,   -0.4,   -0.4,   -0.7,   -0.9,   -0.4,   -0.4,   -0.5,  999.0,  999.0,  999.0,   -0.1,    0.2,  999.0,  999.0,  999.0,   -1.7,   -1.3,   -1.3,   -1.2,   -1.1,   -0.9,   -0.8,   -0.7,   -0.7,   -0.5,   -0.2,   -0.1,   -0.1,   -0.6,    0.2,  999.0,  999.0,  999.0,  999.0,  999.0,  999.0,  999.0,  999.0,  999.0,  999.0,  999.0,  999.0,  999.0
2010/01/12 04:00,   -3.8,   -3.9,   -3.7,   -4.7,   -4.6,   -4.5,   -4.5,   -4.4,   -4.3,   -4.1,   -4.7,   -4.6,   -4.5,   -5.2,   -4.8,   -4.6,   -3.7,   -3.5,   -4.1,   -4.0,   -3.6,   -3.4,   -3.3,   -3.5,   -3.1,   -2.9,   -2.6,   -3.0,   -2.6,   -2.5,   -2.1,   -1.9,   -1.9,   -3.0,   -2.4,   -2.2,   -2.0,   -2.1,   -1.9,   -1.8,   -2.0,   -1.7,   -1.8,   -1.6,   -1.2,   -1.0,   -0.9,   -0.9,   -0.9,   -1.0,   -0.8,   -0.4,   -0.2,    0.0,    0.1,    0.6,    0.5,  999.0,  999.0,  999.0,  999.0,  999.0,  999.0,  999.0,  999.0,  999.0,  999.0,  999.0,   -1.4,   -1.4,   -1.3,   -1.1,   -1.0,   -1.0,   -1.1,   -1.0,   -1.0,   -0.9,   -1.0,   -0.9,   -1.0,   -1.0,  999.0,  999.0,  999.0,  999.0,  999.0,  999.0,  999.0,  999.0,  999.0,  999.0,  999.0,  999.0,  999.0,  999.0,  999.0,  999.0
2010/01/12 04:10,   -3.0,   -2.0,   -4.0,   -4.2,   -4.0,   -3.5,   -2.5,   -2.3,   -3.0,   -4.1,   -4.8,   -5.4,   -5.0,   -4.9,   -5.4,   -5.0,   -5.0,   -5.1,   -5.0,   -4.9,   -4.8,   -4.7,   -4.6,   -4.4,   -4.5,   -4.5,   -4.9,   -6.2,   -5.4,   -4.9,   -3.9,   -3.8,   -4.0,   -3.6,   -3.7,   -3.3,   -2.7,   -2.7,   -3.1,   -2.9,   -4.2,   -3.3,   -2.5,   -1.6,   -1.2,   -0.9,   -0.8,   -0.7,   -0.9,   -0.8,   -0.7,   -0.7,   -0.6,   -0.5,   -0.3,   -0.1,  999.0,  999.0,  999.0,  999.0,    0.1,  999.0,  999.0,  999.0,  999.0,  999.0,  999.0,  999.0,  999.0,  999.0,  999.0,  999.0,  999.0,  999.0,  999.0,  999.0,  999.0,  999.0,  999.0,  999.0,  999.0,  999.0,  999.0,  999.0,  999.0,  999.0,  999.0,  999.0,  999.0,  999.0,  999.0,  999.0,  999.0,  999.0,  999.0,  999.0,  999.0,  999.0
2010/01/12 04:20,  999.0,  999.0,  999.0,    0.2,    0.1,    0.1,    0.1,    0.1,    0.1,    0.2,   -0.0,   -0.0,   -0.3,   -0.3,   -0.4,   -0.3,   -1.4,   -1.2,   -1.4,   -1.6,   -1.6,   -1.5,   -1.9,   -1.8,   -2.4,   -2.3,   -2.5,   -2.3,   -2.3,   -2.4,   -2.3,   -1.7,   -2.1,   -2.0,   -2.0,   -2.0,   -2.0,   -1.4,   -1.2,   -1.1,   -2.0,   -2.0,   -1.9,   -1.2,  999.0,   -0.8,   -0.8,   -0.9,   -0.9,   -0.6,  999.0,  999.0,  999.0,  999.0,   -0.7,  999.0,  999.0,  999.0,  999.0,  999.0,  999.0,  999.0,  999.0,  999.0,  999.0,  999.0,  999.0,  999.0,  999.0,  999.0,  999.0,  999.0,  999.0,  999.0,  999.0,  999.0,  999.0,  999.0,  999.0,  999.0,  999.0,  999.0,  999.0,  999.0,  999.0,  999.0,  999.0,  999.0,  999.0,  999.0,  999.0,  999.0,  999.0,  999.0,  999.0,  999.0,  999.0,  999.0
2010/01/12 04:30,    0.0,  999.0,  999.0,  999.0,  999.0,    0.3,    0.2,    0.2,    0.1,    0.2,    0.1,    0.0,    0.1,    0.1,   -0.0,    0.1,    0.3,    0.3,    0.3,    0.2,    0.2,    0.2,    0.2,    0.1,    0.2,   -0.7,   -2.3,   -2.6,   -1.0,   -1.0,   -1.7,   -2.0,   -2.7,   -2.6,   -2.6,   -2.3,   -2.4,   -1.9,   -1.9,   -1.9,   -2.0,   -2.1,   -1.8,   -1.3,   -1.0,   -1.1,   -1.0,   -0.9,   -0.9,   -0.8,   -0.7,   -0.5,   -0.4,   -0.4,   -0.2,   -0.1,  999.0,  999.0,  999.0,   -0.5,   -0.9,  999.0,  999.0,  999.0,  999.0,  999.0,  999.0,  999.0,  999.0,  999.0,  999.0,  999.0,  999.0,  999.0,  999.0,  999.0,  999.0,  999.0,  999.0,  999.0,  999.0,  999.0,  999.0,  999.0,  999.0,  999.0,  999.0,  999.0,  999.0,  999.0,  999.0,  999.0,  999.0,  999.0,  999.0,  999.0,  999.0,  999.0
2010/01/12 04:40,    0.0,  999.0,    0.1,  999.0,  999.0,   -1.5,   -1.1,   -1.3,   -1.0,    0.0,   -0.1,   -0.3,   -0.0,   -0.1,   -0.2,   -0.1,   -0.1,   -0.1,   -0.1,   -0.6,   -0.6,   -0.0,   -1.2,   -3.4,   -3.5,   -4.4,   -5.7,   -5.8,   -5.6,   -5.9,   -5.9,   -5.8,   -5.6,   -5.6,   -5.9,   -5.7,   -6.0,   -6.0,   -6.1,   -6.1,   -5.8,   -4.6,  999.0,  999.0,  999.0,   -1.8,   -1.6,   -1.5,   -1.4,   -1.2,   -1.1,   -1.2,   -1.0,   -1.0,   -1.0,   -1.3,   -1.4,   -1.3,   -1.2,   -1.1,   -1.0,   -1.0,   -0.9,   -0.7,   -0.5,   -0.6,   -0.3,  999.0,  999.0,  999.0,  999.0,  999.0,  999.0,  999.0,  999.0,  999.0,  999.0,  999.0,  999.0,  999.0,  999.0,  999.0,  999.0,  999.0,  999.0,  999.0,  999.0,  999.0,  999.0,  999.0,  999.0,  999.0,  999.0,  999.0,  999.0,  999.0,  999.0,  999.0
2010/01/12 04:50,   -3.7,   -3.7,   -3.6,   -2.8,   -3.1,   -2.9,   -2.5,   -2.7,   -2.9,   -2.8,   -2.4,   -2.3,   -1.8,   -1.7,   -1.2,   -2.1,   -2.0,   -2.0,   -1.7,   -2.1,   -2.1,   -1.1,   -1.7,   -2.2,   -1.6,   -1.3,   -1.0,   -1.0,   -1.0,   -0.3,    0.1,   -0.5,   -0.2,    0.0,    0.2,    0.2,    0.3,    0.4,    0.4,    0.2,    0.1,   -0.1,   -0.1,   -0.1,   -0.5,   -0.5,  999.0,   -0.1,  999.0,  999.0,  999.0,  999.0,  999.0,  999.0,   -0.4,  999.0,   -0.9,   -0.6,   -0.5,   -1.1,   -1.1,   -1.2,   -1.0,   -0.6,   -0.3,   -0.2,  999.0,  999.0,  999.0,  999.0,  999.0,  999.0,  999.0,  999.0,  999.0,  999.0,  999.0,  999.0,  999.0,  999.0,  999.0,  999.0,  999.0,  999.0,  999.0,  999.0,  999.0,  999.0,  999.0,  999.0,  999.0,  999.0,  999.0,  999.0,  999.0,  999.0,  999.0,  999.0
2010/01/12 05:00,  999.0,  999.0,   -2.6,   -2.0,   -1.2,   -2.2,   -2.4,   -2.7,   -2.8,   -2.9,   -2.7,   -2.7,   -2.7,   -2.5,   -2.6,   -2.7,   -2.9,   -2.9,   -2.7,   -2.4,   -2.2,   -1.9,   -1.7,   -2.0,   -2.0,   -2.2,   -2.1,   -1.9,   -1.7,   -1.7,   -1.6,   -1.3,   -1.2,   -1.0,   -1.0,   -0.9,   -0.6,   -0.6,   -0.8,   -0.9,   -0.7,   -1.3,   -1.0,   -1.3,   -1.6,   -1.7,   -1.8,   -1.5,   -1.9,   -1.8,   -1.6,   -1.7,   -1.5,   -1.3,   -1.1,   -1.1,   -0.9,   -0.7,   -0.4,   -0.5,   -0.4,   -0.2,   -0.1,    0.0,    0.2,    0.2,    0.2,    0.4,  999.0,  999.0,  999.0,  999.0,  999.0,  999.0,  999.0,  999.0,  999.0,  999.0,  999.0,  999.0,  999.0,  999.0,  999.0,  999.0,  999.0,  999.0,  999.0,  999.0,  999.0,  999.0,  999.0,  999.0,  999.0,  999.0,  999.0,  999.0,  999.0,  999.0
2010/01/12 05:10,   -0.7,   -0.9,   -1.0,   -0.3,   -0.4,   -0.3,   -0.2,   -0.5,   -0.6,   -0.7,   -1.0,   -1.3,   -1.5,   -1.4,   -1.4,   -1.5,   -1.4,   -2.1,   -1.8,   -2.2,   -1.8,   -1.8,   -2.0,   -2.0,   -2.0,   -1.9,   -1.8,   -2.1,   -2.2,   -2.4,   -2.3,   -2.4,   -2.1,   -2.3,   -2.4,   -2.3,   -3.6,   -3.9,   -3.6,   -3.2,  999.0,   -3.2,   -2.8,   -2.3,   -2.1,   -2.0,   -1.8,   -1.6,   -1.4,   -1.4,   -1.4,   -1.4,   -1.4,   -1.6,   -1.5,   -1.5,   -1.2,   -1.1,   -1.1,   -1.1,   -0.9,   -0.7,   -0.7,   -0.6,   -0.3,   -0.3,   -0.7,  999.0,  999.0,  999.0,  999.0,  999.0,  999.0,  999.0,  999.0,  999.0,  999.0,  999.0,  999.0,  999.0,  999.0,  999.0,  999.0,  999.0,  999.0,  999.0,  999.0,  999.0,  999.0,  999.0,  999.0,  999.0,  999.0,  999.0,  999.0,  999.0,  999.0,  999.0
2010/01/12 05:20,   -4.9,   -5.0,   -5.0,   -4.9,   -5.3,   -5.1,   -5.1,   -5.0,   -4.8,   -4.7,   -4.6,   -4.6,   -4.5,   -4.3,   -4.2,   -4.2,   -4.1,   -4.0,   -3.7,   -3.6,   -3.5,   -3.3,   -3.2,   -3.3,   -3.1,   -2.9,   -2.8,   -2.7,   -2.5,   -2.4,   -2.2,   -2.1,   -1.9,   -1.8,   -1.4,   -1.4,   -1.2,   -1.0,   -0.9,   -0.9,   -1.0,   -1.1,   -1.4,   -1.7,   -1.5,   -1.6,   -1.6,   -1.5,   -1.9,   -1.7,   -1.6,   -1.6,   -1.5,   -1.4,   -1.4,   -1.3,   -1.3,   -1.0,   -0.9,   -0.8,   -0.6,   -0.8,   -0.9,   -0.9,   -0.7,   -0.6,   -0.3,   -0.4,   -0.4,  999.0,  999.0,  999.0,  999.0,  999.0,  999.0,  999.0,  999.0,  999.0,  999.0,  999.0,  999.0,  999.0,  999.0,  999.0,  999.0,  999.0,  999.0,  999.0,  999.0,  999.0,  999.0,  999.0,  999.0,  999.0,  999.0,  999.0,  999.0,  999.0
2010/01/12 05:30,   -6.9,   -6.9,   -7.0,   -7.0,   -7.0,   -6.9,   -6.9,   -7.0,   -6.9,   -6.8,   -6.7,   -6.8,   -6.7,   -6.6,   -6.5,   -6.5,   -6.8,   -6.7,   -6.5,   -6.9,   -6.8,   -7.0,   -7.3,   -7.4,   -6.8,   -6.0,   -7.2,   -7.2,   -8.0,   -8.2,   -8.1,   -6.8,   -6.9,   -7.0,   -6.3,   -6.3,  999.0,   -6.3,   -5.3,   -6.6,   -6.1,   -4.7,   -3.4,   -2.6,   -2.3,   -2.0,   -1.9,   -1.7,   -1.6,   -1.5,   -1.5,   -1.4,   -1.4,   -1.3,   -1.2,   -1.0,   -1.0,   -0.9,   -0.8,   -0.8,   -0.8,   -0.8,   -0.7,   -0.7,   -0.6,   -0.6,   -0.5,   -0.4,   -0.4,   -0.3,   -0.2,   -0.2,   -0.3,   -0.3,   -0.2,   -0.3,   -0.3,   -0.4,   -0.4,   -0.3,  999.0,  999.0,   -0.0,  999.0,  999.0,  999.0,  999.0,  999.0,  999.0,  999.0,  999.0,  999.0,  999.0,  999.0,  999.0,  999.0,  999.0,  999.0
2010/01/12 05:40,   -5.3,   -5.2,   -5.1,   -5.1,   -5.1,   -5.1,   -5.1,   -5.2,   -5.2,   -5.2,   -5.2,   -5.2,   -5.3,   -5.3,   -5.3,   -5.3,   -5.3,   -5.2,   -5.3,   -5.8,   -5.7,   -5.7,   -5.9,   -6.0,   -6.1,   -6.1,   -6.3,   -6.2,   -6.0,   -6.0,   -6.0,   -6.0,   -6.0,   -5.9,   -5.9,   -6.1,   -5.5,   -4.9,   -4.9,   -4.7,   -4.5,   -4.2,   -2.9,   -2.7,   -2.1,   -2.0,   -1.9,   -1.9,   -1.9,   -1.9,   -1.9,   -1.7,   -1.6,   -1.6,   -1.5,   -1.5,   -1.3,   -1.3,   -1.2,   -1.0,   -1.0,   -1.1,   -1.1,   -1.1,   -1.0,   -1.0,   -0.9,   -0.9,   -0.9,   -0.8,   -0.8,   -0.7,   -0.7,   -0.6,   -0.5,   -0.5,   -0.6,   -0.5,   -0.7,   -0.8,  999.0,  999.0,  999.0,  999.0,  999.0,  999.0,  999.0,  999.0,  999.0,  999.0,  999.0,  999.0,  999.0,  999.0,  999.0,  999.0,  999.0,  999.0
2010/01/12 05:50,   -6.3,   -6.6,   -6.6,   -6.5,   -6.4,   -6.4,   -6.3,   -6.3,   -7.0,   -6.9,   -6.8,   -6.7,   -6.6,   -6.7,   -6.6,   -6.7,   -6.6,   -6.7,   -6.6,   -6.6,   -6.7,   -6.9,   -6.3,   -6.0,   -6.2,   -6.4,   -6.6,   -6.7,   -6.7,   -6.8,   -6.7,   -6.8,   -6.8,   -6.9,   -6.9,   -6.8,   -6.8,   -6.8,   -6.4,   -6.4,   -5.6,   -4.7,   -3.7,   -2.7,   -2.2,   -1.9,   -1.7,   -1.6,   -1.4,   -1.3,   -1.3,   -1.2,   -1.3,   -1.3,   -1.3,   -1.3,   -1.3,   -1.3,   -1.3,   -1.3,   -1.2,   -1.2,   -1.2,   -1.2,   -1.2,   -1.2,   -1.1,   -1.1,   -1.0,   -0.8,   -0.5,   -0.5,   -0.4,   -0.5,   -0.5,   -0.4,   -0.3,   -0.3,   -0.4,   -0.4,   -0.7,   -0.7,  999.0,  999.0,  999.0,  999.0,  999.0,  999.0,  999.0,  999.0,  999.0,  999.0,  999.0,  999.0,  999.0,  999.0,  999.0,  999.0
2010/01/12 06:00,   -4.6,   -4.6,   -4.5,   -4.5,   -4.4,   -4.4,   -4.2,   -4.2,   -4.1,   -4.1,   -4.0,   -3.9,   -3.8,   -4.5,   -3.5,   -4.7,   -4.7,   -4.6,   -4.3,   -4.1,   -4.3,   -4.4,   -5.0,   -5.0,   -6.0,   -5.9,   -5.9,   -5.8,   -5.9,   -5.9,   -5.9,   -5.9,   -6.0,   -6.1,   -6.3,   -6.4,   -6.6,   -6.1,   -6.0,   -5.5,   -5.0,   -3.9,   -2.7,   -2.0,   -1.7,   -1.6,   -1.5,   -1.4,   -1.3,   -1.2,   -1.1,   -1.0,   -0.9,   -0.8,   -0.7,   -0.8,   -1.1,   -1.2,   -1.3,   -1.3,   -1.2,   -1.2,   -1.2,   -1.1,   -1.2,   -1.1,   -1.0,   -0.9,   -0.8,   -0.7,   -0.6,   -0.5,   -0.5,   -0.3,   -0.3,   -0.4,   -0.3,  999.0,  999.0,  999.0,  999.0,  999.0,  999.0,  999.0,  999.0,  999.0,  999.0,  999.0,  999.0,  999.0,  999.0,  999.0,  999.0,  999.0,  999.0,  999.0,  999.0,  999.0
2010/01/12 06:10,   -3.7,   -3.5,   -3.5,   -3.5,   -3.4,   -3.4,   -3.2,   -3.4,   -3.5,   -3.5,   -3.8,   -3.8,   -4.1,   -3.7,   -3.6,   -3.6,   -2.6,   -2.5,   -2.4,   -3.3,   -3.7,   -4.3,   -4.0,   -4.0,   -4.0,   -3.9,   -4.8,   -4.8,   -4.7,   -4.5,   -4.3,   -4.3,   -4.1,   -4.0,   -3.7,   -3.5,   -2.5,   -2.5,   -3.1,   -2.8,   -2.8,   -3.0,   -2.3,   -2.0,   -1.7,   -1.5,   -1.5,   -1.6,   -1.5,   -1.4,   -1.3,   -1.0,   -0.9,   -0.9,   -0.7,   -0.6,   -1.2,   -1.1,   -1.4,   -1.3,   -1.3,   -1.1,  999.0,   -1.0,   -0.8,   -0.9,   -0.9,   -0.9,   -1.0,   -1.0,  999.0,  999.0,  999.0,  999.0,  999.0,  999.0,  999.0,  999.0,  999.0,  999.0,  999.0,  999.0,  999.0,  999.0,  999.0,  999.0,  999.0,  999.0,  999.0,  999.0,  999.0,  999.0,  999.0,  999.0,  999.0,  999.0,  999.0,  999.0
2010/01/12 06:20,   -6.3,   -6.3,   -6.4,   -6.4,   -6.4,   -6.4,   -6.5,   -6.6,   -6.7,   -6.7,   -6.7,   -6.8,   -6.7,   -6.8,   -6.8,   -6.8,   -6.7,   -6.7,   -6.7,   -6.7,   -6.8,   -6.6,   -6.7,   -6.6,   -6.8,   -6.8,   -6.8,   -6.9,   -6.9,   -7.0,   -6.8,   -6.8,   -6.8,   -6.8,   -6.9,   -6.8,   -6.9,   -6.7,   -6.6,   -6.6,   -4.8,   -3.7,   -2.7,   -1.9,   -1.7,   -1.4,   -1.2,   -1.0,   -0.9,   -0.8,   -0.7,   -0.7,   -0.7,   -0.6,   -0.6,   -0.6,  999.0,  999.0,  999.0,   -1.1,   -0.6,   -0.4,  999.0,   -0.5,   -0.5,   -0.4,   -0.4,  999.0,  999.0,  999.0,  999.0,  999.0,  999.0,  999.0,  999.0,  999.0,  999.0,  999.0,  999.0,  999.0,  999.0,  999.0,  999.0,  999.0,  999.0,  999.0,  999.0,  999.0,  999.0,  999.0,  999.0,  999.0,  999.0,  999.0,  999.0,  999.0,  999.0,  999.0
2010/01/12 06:30,   -6.7,   -6.7,   -6.7,   -6.7,   -6.7,   -6.7,   -6.7,   -6.7,   -6.7,   -6.7,   -6.7,   -6.7,   -6.8,   -6.7,   -6.6,   -6.7,   -6.3,   -6.4,   -6.4,   -6.4,   -6.3,   -6.4,   -6.3,   -6.4,   -6.4,   -6.4,   -6.4,   -6.6,   -6.6,   -6.8,   -6.9,   -6.9,   -7.1,   -7.2,   -7.3,   -7.4,   -7.6,   -7.6,   -7.0,   -6.4,   -4.8,   -3.2,  999.0,   -1.8,   -1.7,   -1.6,   -1.5,   -1.4,   -1.3,   -1.2,   -1.2,   -1.2,   -1.2,   -1.2,   -1.0,   -0.9,   -0.8,   -0.9,  999.0,  999.0,  999.0,   -0.8,   -0.6,  999.0,  999.0,  999.0,  999.0,  999.0,  999.0,  999.0,  999.0,  999.0,  999.0,  999.0,  999.0,  999.0,  999.0,  999.0,  999.0,  999.0,  999.0,  999.0,  999.0,  999.0,  999.0,  999.0,  999.0,  999.0,  999.0,  999.0,  999.0,  999.0,  999.0,  999.0,  999.0,  999.0,  999.0,  999.0
2010/01/12 06:40,   -5.4,   -5.5,   -5.5,   -5.4,   -5.5,   -5.4,   -5.4,   -5.4,   -5.5,   -5.4,   -5.4,   -5.4,   -5.4,   -5.4,   -5.2,   -5.3,   -5.2,   -5.3,   -5.2,   -5.0,   -5.1,   -5.0,   -4.9,   -4.8,   -4.8,   -4.9,   -4.9,   -4.7,   -4.7,   -4.8,   -4.8,   -4.9,   -4.9,   -5.2,   -4.6,   -5.2,   -5.2,   -4.4,   -4.4,   -4.5,   -4.4,  999.0,  999.0,   -1.7,   -1.4,   -1.4,   -1.4,  999.0,   -1.2,   -1.2,   -1.2,   -1.1,   -1.1,   -1.0,   -0.9,   -0.9,   -0.9,   -0.9,   -0.8,   -0.8,   -0.8,   -0.8,   -0.8,   -0.6,  999.0,  999.0,  999.0,  999.0,   -0.7,   -0.7,  999.0,  999.0,  999.0,  999.0,  999.0,  999.0,  999.0,  999.0,  999.0,  999.0,  999.0,  999.0,  999.0,  999.0,  999.0,  999.0,  999.0,  999.0,  999.0,  999.0,  999.0,  999.0,  999.0,  999.0,  999.0,  999.0,  999.0,  999.0
2010/01/12 06:50,   -4.5,   -4.7,   -4.6,   -4.6,   -4.5,   -4.5,   -4.5,   -4.5,   -4.6,   -4.7,   -4.6,   -4.7,   -4.8,   -4.9,   -4.8,   -4.8,   -4.9,   -5.0,   -5.1,   -5.1,   -5.2,   -5.5,   -5.3,   -5.4,   -5.4,   -5.3,   -5.1,   -5.0,   -5.0,   -5.1,   -5.1,   -5.0,   -4.8,   -4.8,   -4.9,   -4.8,   -4.8,   -4.7,   -4.7,   -4.5,   -4.1,  999.0,  999.0,   -1.5,   -1.4,   -1.4,   -1.3,   -1.3,   -1.3,   -1.2,   -1.2,   -1.2,   -1.1,   -1.1,   -1.0,   -1.0,   -0.9,   -0.8,   -0.8,   -0.8,   -0.8,   -0.7,   -0.7,   -0.6,   -0.6,   -0.6,   -0.6,   -0.6,   -0.5,   -0.5,   -0.6,  999.0,  999.0,  999.0,  999.0,  999.0,  999.0,  999.0,  999.0,  999.0,  999.0,  999.0,  999.0,  999.0,  999.0,  999.0,  999.0,  999.0,  999.0,  999.0,  999.0,  999.0,  999.0,  999.0,  999.0,  999.0,  999.0,  999.0
2010/01/12 07:00,   -4.1,   -4.2,   -4.4,   -4.3,   -4.3,   -3.9,   -4.2,   -4.3,   -4.5,   -4.0,   -4.2,   -4.3,   -4.2,   -4.0,   -4.0,   -4.1,   -4.0,   -3.9,   -3.9,   -3.9,   -4.0,   -4.3,   -4.3,   -4.5,   -4.4,   -4.6,   -4.7,   -4.7,   -4.2,   -4.8,   -4.4,   -4.9,   -4.8,   -4.9,   -4.8,   -3.5,   -3.5,   -3.5,   -3.5,   -3.5,   -3.5,   -2.5,  999.0,   -1.1,   -1.0,   -0.9,   -0.9,   -0.9,   -1.0,   -0.9,   -0.9,   -0.8,   -0.8,   -0.8,   -0.8,   -0.8,   -0.9,   -0.9,   -1.0,   -1.0,   -1.1,   -1.2,   -1.2,   -1.2,   -1.2,   -1.2,   -1.2,   -1.1,   -1.0,   -0.9,   -0.8,   -0.7,   -0.7,  999.0,  999.0,  999.0,  999.0,  999.0,  999.0,  999.0,  999.0,  999.0,  999.0,  999.0,  999.0,  999.0,  999.0,  999.0,  999.0,  999.0,  999.0,  999.0,  999.0,  999.0,  999.0,  999.0,  999.0,  999.0
2010/01/12 07:10,   -3.9,   -3.8,   -3.9,   -3.9,   -3.9,   -3.7,   -3.8,   -3.8,   -4.0,   -3.8,   -3.3,   -3.3,   -3.3,   -3.3,   -3.3,   -3.3,   -3.3,   -3.3,   -3.4,   -3.4,   -3.4,   -3.5,   -3.5,   -3.4,   -3.3,   -3.3,   -3.2,   -3.1,   -3.1,   -3.0,   -3.2,   -3.2,   -3.2,   -3.3,   -3.4,   -3.4,   -3.5,   -3.5,   -3.7,   -3.8,   -3.6,  999.0,  999.0,   -1.5,   -1.5,   -1.5,   -1.4,   -1.4,   -1.4,   -1.4,   -1.4,   -1.3,   -1.3,   -1.3,   -1.3,   -1.3,   -1.5,   -1.7,   -1.4,   -1.2,   -1.6,   -1.8,   -1.7,   -1.8,   -1.8,   -1.6,   -1.5,   -1.5,   -1.4,   -1.4,   -1.2,   -1.1,   -1.1,   -1.1,   -1.1,  999.0,  999.0,  999.0,  999.0,  999.0,  999.0,  999.0,  999.0,  999.0,  999.0,  999.0,  999.0,  999.0,  999.0,  999.0,  999.0,  999.0,  999.0,  999.0,  999.0,  999.0,  999.0,  999.0
2010/01/12 07:20,   -4.8,   -4.9,   -4.9,   -4.3,   -4.3,   -4.5,   -4.6,   -4.7,   -4.6,   -4.7,   -4.6,   -4.5,   -4.5,   -4.5,   -4.3,   -4.0,   -3.8,   -3.7,   -3.7,   -3.6,   -3.6,   -3.6,   -3.5,   -3.5,   -3.4,   -3.5,   -3.0,   -3.1,   -3.1,   -3.0,   -3.0,   -3.0,   -3.1,   -3.1,   -2.9,   -2.9,   -2.9,   -2.8,   -2.8,   -2.8,   -2.9,   -2.6,   -1.9,   -1.3,   -1.3,   -1.4,   -1.4,   -1.5,   -1.6,   -1.7,   -1.7,   -1.7,   -1.6,   -1.6,   -1.7,   -1.7,   -1.8,   -1.7,   -1.6,   -1.6,   -1.5,   -1.5,   -1.5,   -1.5,   -1.5,   -1.4,   -1.3,   -1.2,   -1.2,   -1.2,   -1.2,   -1.2,   -1.3,   -1.5,   -1.1,  999.0,  999.0,  999.0,  999.0,  999.0,  999.0,  999.0,  999.0,  999.0,  999.0,  999.0,  999.0,  999.0,  999.0,  999.0,  999.0,  999.0,  999.0,  999.0,  999.0,  999.0,  999.0,  999.0
2010/01/12 07:30,   -4.0,   -4.1,   -4.2,   -4.3,   -4.3,   -4.3,   -4.2,   -4.3,   -4.1,   -4.3,   -4.3,   -4.3,   -4.2,   -4.1,   -4.0,   -4.0,   -3.9,   -3.8,   -3.8,   -3.7,   -3.7,   -3.7,   -3.6,   -3.5,   -3.4,   -3.3,   -3.3,   -3.1,   -3.0,   -3.0,   -2.9,   -3.1,   -3.1,   -3.0,   -3.1,   -3.3,   -3.8,   -4.1,   -4.1,   -3.6,   -3.8,   -2.3,   -1.8,   -1.7,   -1.7,   -1.8,   -1.8,   -1.8,   -1.7,   -1.7,   -1.6,   -1.5,   -1.5,   -1.6,   -1.6,   -1.6,   -1.5,   -1.5,   -1.4,   -1.4,   -1.4,   -1.4,   -1.4,   -1.4,   -1.4,   -1.4,   -1.5,   -1.6,   -1.7,   -1.6,   -1.7,   -1.7,   -1.7,   -1.6,   -1.7,   -1.7,   -1.6,   -1.6,   -1.4,   -1.3,   -1.3,   -1.5,  999.0,   -1.4,  999.0,  999.0,  999.0,  999.0,  999.0,  999.0,  999.0,  999.0,  999.0,  999.0,  999.0,  999.0,  999.0,  999.0
2010/01/12 07:40,   -2.9,   -3.0,   -3.1,   -3.1,   -3.1,   -3.2,   -3.3,   -3.3,   -3.3,   -3.3,   -3.4,   -3.4,   -3.4,   -3.4,   -3.5,   -3.4,   -3.6,   -3.7,   -3.6,   -3.5,   -3.4,   -3.3,   -3.2,   -3.2,   -3.1,   -3.0,   -2.9,   -2.9,   -2.7,   -2.8,   -2.9,   -2.9,   -2.9,   -2.9,   -3.0,   -2.9,   -3.0,   -3.1,   -3.2,   -3.3,   -3.6,   -2.1,  999.0,   -1.4,   -1.4,   -1.5,   -1.5,   -1.5,   -1.4,   -1.3,   -1.2,   -1.1,   -1.0,   -1.0,   -1.0,   -1.1,   -1.2,   -1.3,   -1.3,   -1.3,   -1.3,   -1.3,   -1.2,   -1.2,   -1.1,   -1.1,   -1.2,   -1.2,   -1.3,   -1.3,   -1.3,   -1.2,   -1.2,   -1.2,   -1.3,   -1.3,   -1.3,   -1.3,   -1.4,   -1.6,  999.0,  999.0,  999.0,  999.0,  999.0,  999.0,  999.0,  999.0,  999.0,  999.0,  999.0,  999.0,  999.0,  999.0,  999.0,  999.0,  999.0,  999.0
2010/01/12 07:50,  999.0,  999.0,  999.0,   -3.9,   -3.8,  999.0,   -2.9,   -3.1,   -3.6,   -3.9,   -4.0,   -4.1,   -3.9,   -3.9,   -3.8,   -3.8,   -3.8,   -3.7,   -3.6,   -3.7,   -3.8,   -3.8,   -3.7,   -3.6,   -3.5,   -3.4,   -3.4,   -3.7,   -4.0,   -3.9,   -4.0,   -4.1,   -4.1,   -4.2,   -4.5,   -4.8,   -4.8,   -4.9,   -4.7,   -4.7,   -3.3,  999.0,  999.0,   -1.6,   -1.6,   -1.6,   -1.5,   -1.5,   -1.6,   -1.6,   -1.6,   -1.6,   -1.6,   -1.6,   -1.5,   -1.5,   -1.5,   -1.4,   -1.3,   -1.2,   -1.1,   -1.0,   -1.0,   -0.9,   -0.9,   -0.9,   -0.8,   -0.9,   -1.0,   -1.0,   -1.0,   -1.0,   -1.0,   -1.0,   -1.0,   -1.0,   -1.0,   -1.1,   -1.1,  999.0,  999.0,  999.0,  999.0,  999.0,  999.0,  999.0,  999.0,  999.0,  999.0,  999.0,  999.0,  999.0,  999.0,  999.0,  999.0,  999.0,  999.0,  999.0
2010/01/12 08:00,   -2.4,   -2.5,   -2.8,   -2.9,   -2.6,   -2.7,   -2.6,   -2.7,   -2.7,   -2.6,   -2.9,   -3.1,   -3.0,   -3.0,   -3.2,   -3.1,   -3.1,   -3.1,   -3.1,   -3.2,   -3.3,   -3.4,   -3.7,   -3.8,   -3.8,   -4.0,   -4.1,   -4.3,   -4.3,   -4.4,   -4.3,   -4.4,   -4.5,   -4.6,   -4.7,   -4.8,   -4.8,   -4.8,   -4.8,   -4.6,  999.0,  999.0,  999.0,   -1.4,   -1.3,   -1.2,   -1.2,   -1.2,   -1.3,   -1.3,   -1.4,   -1.4,   -1.4,   -1.4,   -1.5,   -1.5,   -1.4,   -1.4,   -1.3,   -1.2,   -1.2,   -1.2,   -1.1,   -1.1,   -1.0,   -1.1,   -1.0,   -1.0,   -1.1,   -1.0,   -1.0,   -1.0,   -0.9,   -0.9,   -0.8,   -0.9,   -0.9,   -0.8,   -1.0,   -1.0,   -0.9,  999.0,  999.0,  999.0,  999.0,  999.0,  999.0,  999.0,  999.0,  999.0,  999.0,  999.0,  999.0,  999.0,  999.0,  999.0,  999.0,  999.0
2010/01/12 08:10,   -0.9,   -0.7,   -0.8,   -1.0,    0.1,    0.1,    0.1,    0.1,   -0.6,   -0.2,    0.0,   -0.4,   -0.4,  999.0,  999.0,  999.0,   -2.9,   -3.2,   -3.0,   -3.5,   -3.6,   -3.5,   -3.5,   -3.5,   -3.5,   -3.6,   -4.2,   -4.1,   -4.2,   -4.2,   -4.2,   -4.2,   -4.3,   -4.3,   -4.3,   -4.2,   -4.1,   -4.0,   -4.1,   -4.1,  999.0,   -1.7,   -1.3,   -1.2,   -1.1,   -1.2,   -1.1,   -1.1,   -1.1,   -1.0,   -1.0,   -1.0,   -0.9,   -1.0,   -1.0,   -1.0,   -1.1,   -1.1,   -1.1,   -1.1,   -1.1,   -1.1,   -1.1,   -1.1,   -1.1,   -1.2,   -1.2,   -1.3,   -1.4,  999.0,  999.0,  999.0,  999.0,  999.0,  999.0,  999.0,  999.0,  999.0,  999.0,  999.0,  999.0,  999.0,  999.0,  999.0,  999.0,  999.0,  999.0,  999.0,  999.0,  999.0,  999.0,  999.0,  999.0,  999.0,  999.0,  999.0,  999.0,  999.0
2010/01/12 08:20,   -0.4,   -1.1,   -1.0,   -1.0,   -1.0,    0.1,    0.0,    0.1,    0.0,    0.1,    0.0,    0.0,    0.0,   -0.1,   -0.2,   -1.1,   -0.5,   -0.6,   -0.6,   -0.8,   -1.1,   -1.2,   -1.4,   -1.4,   -1.7,   -1.4,   -3.8,   -3.8,   -3.4,   -3.5,   -3.6,   -3.6,   -3.6,   -3.6,   -3.6,   -3.6,   -3.6,   -3.5,   -3.5,   -3.5,   -3.0,   -2.4,  999.0,   -1.2,   -1.1,   -1.1,   -1.2,   -1.2,   -1.1,   -1.1,   -1.0,   -1.0,   -1.0,   -0.9,   -1.0,   -1.0,   -1.0,   -1.0,   -1.0,   -0.9,   -0.9,   -0.9,   -0.9,   -0.9,   -0.9,   -1.0,  999.0,  999.0,  999.0,  999.0,  999.0,  999.0,  999.0,  999.0,  999.0,  999.0,  999.0,  999.0,  999.0,  999.0,  999.0,  999.0,  999.0,  999.0,  999.0,  999.0,  999.0,  999.0,  999.0,  999.0,  999.0,  999.0,  999.0,  999.0,  999.0,  999.0,  999.0,  999.0
2010/01/12 08:30,    0.0,    0.0,    0.1,    0.2,    0.1,    0.2,    0.1,    0.1,    0.1,    0.2,    0.1,    0.0,    0.1,    0.1,    0.1,    0.1,    0.0,   -0.0,    0.0,    0.0,   -0.8,   -0.8,   -1.0,  999.0,  999.0,   -3.7,   -3.6,   -3.5,   -3.4,   -3.4,   -3.3,   -3.2,   -3.2,   -3.3,   -3.3,   -3.3,   -3.2,   -3.1,   -3.0,   -2.9,   -2.6,   -2.1,   -1.3,   -1.1,   -1.1,   -1.0,   -1.0,   -1.0,   -0.9,   -0.8,   -0.7,   -0.8,   -1.0,   -1.1,   -1.3,   -1.2,   -1.3,   -1.3,   -1.4,   -1.4,   -1.4,   -1.4,   -1.3,   -1.3,   -1.2,   -1.2,   -1.2,   -1.0,   -0.9,   -0.9,  999.0,  999.0,  999.0,  999.0,  999.0,  999.0,  999.0,  999.0,  999.0,   -1.1,   -1.1,   -1.1,   -1.1,   -0.9,   -0.9,   -0.8,   -0.9,   -0.6,  999.0,  999.0,  999.0,  999.0,  999.0,  999.0,  999.0,  999.0,  999.0,  999.0
2010/01/12 08:40,    0.0,    0.1,    0.1,    0.2,    0.1,    0.2,    0.2,    0.2,    0.1,    0.2,    0.1,    0.1,    0.1,  999.0,  999.0,  999.0,  999.0,  999.0,   -3.5,   -3.6,   -3.6,   -3.5,   -3.5,   -3.4,   -3.3,   -3.2,   -3.2,   -3.1,   -3.0,   -3.0,   -3.1,   -3.2,   -3.2,   -3.1,   -3.1,   -3.1,   -3.0,   -3.0,   -2.9,   -3.0,   -2.9,   -1.7,  999.0,   -1.0,   -1.0,   -1.1,   -1.1,   -1.2,   -1.0,   -0.9,   -1.0,   -1.2,   -1.4,   -1.5,   -1.5,   -1.5,   -1.5,   -1.5,   -1.5,   -1.5,   -1.4,   -1.4,   -1.4,   -1.3,   -1.2,   -1.2,   -1.1,   -1.0,   -0.9,   -0.8,   -0.7,  999.0,  999.0,  999.0,  999.0,  999.0,   -0.9,   -0.9,   -1.0,   -1.0,   -0.9,   -0.9,   -0.9,   -0.8,  999.0,  999.0,  999.0,  999.0,  999.0,  999.0,  999.0,  999.0,  999.0,  999.0,  999.0,  999.0,  999.0,  999.0
2010/01/12 08:50,  999.0,  999.0,  999.0,    0.8,   -2.8,   -2.9,   -3.2,   -3.3,   -3.3,   -3.4,   -3.3,   -2.8,   -3.1,   -3.5,   -3.4,   -3.4,   -3.4,   -3.5,   -3.4,   -3.4,   -3.4,   -3.5,   -3.5,   -3.5,   -3.5,   -3.6,   -3.5,   -3.5,   -3.3,   -3.5,   -3.4,   -3.5,   -3.5,   -3.3,   -3.2,   -3.2,   -3.3,   -3.2,   -3.4,   -3.4,   -3.0,   -2.0,   -1.3,   -1.2,   -1.1,   -1.1,   -1.0,   -1.1,   -1.1,   -1.2,   -1.3,   -1.3,   -1.3,   -1.3,   -1.3,   -1.2,   -1.2,   -1.1,   -1.0,   -0.9,   -0.8,   -0.8,   -0.8,   -0.8,   -0.8,   -0.7,   -0.7,   -0.8,   -0.8,   -0.8,   -0.7,   -0.7,   -0.8,   -1.0,   -0.9,   -0.9,   -0.8,   -0.6,   -0.8,   -1.0,  999.0,  999.0,   -0.7,  999.0,  999.0,  999.0,  999.0,  999.0,  999.0,  999.0,  999.0,  999.0,  999.0,  999.0,  999.0,  999.0,  999.0,  999.0
2010/01/12 09:00,   -2.1,   -2.2,   -2.1,   -3.7,   -5.6,   -5.7,   -4.9,   -5.3,   -4.9,   -5.0,   -4.8,   -4.8,   -4.7,   -4.8,   -4.8,   -4.7,   -4.7,   -4.7,   -4.9,   -4.9,   -4.9,   -5.0,   -4.9,   -4.7,   -4.7,   -4.7,   -4.8,   -4.7,   -4.6,   -4.5,   -4.3,   -4.3,   -4.2,   -4.2,   -4.1,   -4.1,   -3.9,   -4.0,   -3.9,   -3.5,   -3.3,   -1.7,  999.0,   -1.0,   -1.1,   -1.0,   -1.0,   -0.8,   -0.7,   -0.7,   -0.8,   -0.9,   -1.0,   -1.1,   -1.1,   -1.2,   -1.2,   -1.1,   -1.1,   -1.1,   -1.0,   -1.0,   -0.9,   -0.9,   -0.8,   -0.9,   -0.9,   -0.8,   -0.8,   -0.8,   -0.7,   -0.8,   -0.8,  999.0,  999.0,  999.0,   -1.0,  999.0,  999.0,  999.0,  999.0,  999.0,   -0.5,   -0.5,   -0.6,   -0.7,   -0.6,   -0.6,  999.0,  999.0,  999.0,  999.0,  999.0,  999.0,  999.0,  999.0,  999.0,  999.0
2010/01/12 09:10,   -5.3,   -5.5,   -5.5,   -5.5,   -5.4,   -5.3,   -5.3,   -5.2,   -5.2,   -5.2,   -5.3,   -5.3,   -5.9,   -5.5,   -5.5,   -5.6,   -5.4,   -4.9,   -4.8,   -4.9,   -4.7,   -4.9,   -4.8,   -4.7,   -4.7,   -4.5,   -4.5,   -4.4,   -4.4,   -4.3,   -4.2,   -4.1,   -4.2,   -4.3,   -4.4,   -4.5,   -4.5,   -4.4,   -4.7,   -4.4,   -4.4,   -2.9,  999.0,   -1.5,   -1.3,   -1.3,   -1.2,   -1.2,   -1.1,   -1.1,   -1.1,   -1.1,   -1.1,   -1.2,   -1.2,   -1.3,   -1.3,   -1.3,   -1.3,   -1.2,   -1.2,   -1.1,   -1.0,   -0.9,   -0.8,   -0.7,   -0.8,   -0.8,   -0.8,   -0.9,   -0.9,   -0.9,   -0.9,   -0.9,   -1.0,  999.0,   -0.9,  999.0,  999.0,   -0.7,   -0.7,   -0.7,   -0.6,   -0.6,   -0.8,   -0.8,  999.0,   -1.0,   -0.8,  999.0,  999.0,  999.0,  999.0,  999.0,  999.0,  999.0,  999.0,  999.0
2010/01/12 09:20,   -4.4,   -4.7,   -4.5,   -4.3,   -4.2,   -4.3,   -4.5,   -4.4,   -4.8,   -4.7,   -4.5,   -4.4,   -4.3,   -4.1,   -4.1,   -4.1,   -4.0,   -3.8,   -3.7,   -3.7,   -3.6,   -3.5,   -3.6,   -3.5,   -3.7,   -3.7,   -3.7,   -3.7,   -3.8,   -3.9,   -3.9,   -4.0,   -4.2,   -4.3,   -4.5,   -4.6,   -4.8,   -4.8,   -4.8,   -4.7,   -2.8,   -1.8,   -1.3,   -1.2,   -1.3,   -1.3,   -1.3,   -1.3,   -1.4,   -1.3,   -1.3,   -1.4,   -1.3,   -1.3,   -1.2,   -1.2,   -1.2,   -1.2,   -1.2,   -1.1,   -1.1,   -1.0,   -1.0,   -1.0,   -1.0,   -1.0,   -1.0,   -1.0,   -1.0,   -0.9,   -0.9,   -0.9,   -0.9,   -0.9,   -0.8,   -0.8,   -0.7,   -0.7,   -0.7,   -0.6,   -0.6,   -0.6,   -0.5,   -0.6,  999.0,  999.0,  999.0,  999.0,  999.0,  999.0,  999.0,  999.0,  999.0,  999.0,  999.0,  999.0,  999.0,  999.0
2010/01/12 09:30,  999.0,  999.0,   -4.0,   -4.8,   -5.4,   -5.3,   -5.0,   -5.0,   -4.9,   -4.9,   -4.8,   -4.7,   -4.6,   -4.6,   -4.5,   -4.5,   -4.2,   -3.9,   -3.8,   -3.6,   -3.6,   -3.9,   -4.4,   -4.4,   -4.7,   -4.8,   -4.4,   -4.6,   -4.8,   -4.8,   -4.9,   -4.8,   -4.9,   -5.0,   -5.2,   -5.3,   -5.4,   -5.5,   -5.5,   -5.1,   -2.9,  999.0,   -1.5,   -1.5,   -1.4,   -1.4,   -1.4,   -1.5,   -1.5,   -1.4,   -1.4,   -1.4,   -1.4,   -1.4,   -1.4,   -1.4,   -1.4,   -1.3,   -1.3,   -1.3,   -1.2,   -1.2,   -1.2,   -1.2,   -1.1,   -1.1,   -1.0,   -1.0,   -1.0,   -0.9,   -0.9,   -0.9,   -0.8,   -0.8,   -0.8,   -0.8,   -0.8,   -0.8,   -0.6,   -0.5,   -0.5,   -0.5,   -0.4,   -0.4,  999.0,  999.0,  999.0,  999.0,  999.0,  999.0,  999.0,  999.0,  999.0,  999.0,  999.0,  999.0,  999.0,  999.0
2010/01/12 09:40,   -5.2,   -5.3,   -5.3,   -5.3,   -5.3,   -5.3,   -5.2,   -5.2,   -5.0,   -4.9,   -4.8,   -4.8,   -4.7,   -4.6,   -4.5,   -4.4,   -4.2,   -4.0,   -3.9,   -3.7,   -3.7,   -3.6,   -3.6,   -3.4,   -3.2,   -3.3,   -3.4,   -3.3,   -3.2,   -3.2,   -3.2,   -3.2,   -3.1,   -3.0,   -2.9,   -2.8,   -2.7,   -2.6,   -2.6,   -2.7,   -2.5,   -1.5,   -1.0,   -1.1,   -1.2,   -1.2,   -1.3,   -1.3,   -1.4,   -1.4,   -1.4,   -1.4,   -1.4,   -1.4,   -1.3,   -1.3,   -1.3,   -1.3,   -1.3,   -1.3,   -1.2,   -1.2,   -1.2,   -1.2,   -1.3,   -1.3,   -1.3,   -1.2,   -1.2,   -1.2,   -1.1,   -1.1,   -1.1,   -1.1,   -1.1,   -1.1,   -1.1,   -1.1,   -1.0,   -1.0,   -1.0,   -1.0,   -1.0,   -0.9,  999.0,  999.0,  999.0,  999.0,  999.0,  999.0,  999.0,  999.0,  999.0,  999.0,  999.0,  999.0,  999.0,  999.0
2010/01/12 09:50,   -3.0,  999.0,  999.0,  999.0,   -1.8,   -2.0,   -1.5,   -1.5,   -1.4,   -1.3,   -1.2,   -1.2,   -1.2,   -1.2,   -1.1,   -0.9,   -0.9,   -1.1,  999.0,   -2.3,   -2.7,   -2.7,   -2.6,   -2.8,   -2.8,   -3.0,   -2.9,   -2.9,   -2.9,   -2.9,   -2.9,   -2.9,   -2.9,   -2.6,   -2.5,   -2.5,   -2.5,   -2.4,   -2.6,   -2.4,   -2.4,   -2.4,   -1.4,   -1.1,   -1.0,   -1.0,   -1.1,   -1.1,   -1.2,   -1.2,   -1.3,   -1.3,   -1.3,   -1.3,   -1.3,   -1.3,   -1.3,   -1.2,   -1.1,   -1.0,   -1.0,   -1.0,   -0.9,   -0.8,   -0.8,   -0.8,   -0.8,   -0.7,   -0.7,   -0.7,   -0.7,   -0.8,   -0.9,   -0.9,   -1.0,   -1.0,   -1.0,   -1.1,   -1.1,   -1.0,   -1.2,  999.0,  999.0,  999.0,  999.0,  999.0,  999.0,  999.0,  999.0,  999.0,  999.0,  999.0,  999.0,  999.0,  999.0,  999.0,  999.0,  999.0
2010/01/12 10:00,    0.0,    0.1,    0.2,    0.2,    0.2,    0.2,    0.2,    0.2,    0.2,    0.1,    0.1,    0.1,    0.1,   -0.0,    0.1,    0.1,  999.0,  999.0,  999.0,   -3.6,   -3.9,   -4.0,   -4.0,   -3.9,   -3.7,   -3.7,   -3.7,   -3.7,   -3.6,   -3.5,   -3.4,   -3.5,   -3.5,   -3.6,   -3.4,   -3.3,   -3.3,   -3.2,   -3.2,   -3.2,   -3.0,  999.0,   -2.2,   -1.5,   -1.3,   -1.3,   -1.3,   -1.4,   -1.3,   -1.3,   -1.3,   -1.3,   -1.3,   -1.3,   -1.2,   -1.1,   -1.1,   -1.1,   -1.0,   -0.9,   -0.8,   -0.8,   -0.6,   -0.5,   -0.4,   -0.3,   -0.2,   -0.3,   -0.2,   -0.2,   -0.2,   -0.2,   -0.3,   -0.3,   -0.3,   -0.3,   -0.3,   -0.3,   -0.2,   -0.1,   -0.0,    0.2,    0.1,  999.0,  999.0,  999.0,  999.0,  999.0,  999.0,  999.0,  999.0,  999.0,  999.0,  999.0,  999.0,  999.0,  999.0,  999.0
2010/01/12 10:10,    0.0,    0.0,    0.1,    0.1,    0.1,    0.2,    0.1,    0.1,    0.1,    0.1,    0.1,    0.1,    0.1,    0.1,    0.1,    0.3,    0.3,    0.2,    0.3,    0.3,    0.2,    0.3,    0.2,    0.2,    0.2,  999.0,  999.0,  999.0,  999.0,   -3.6,   -3.9,   -4.2,   -4.1,   -4.2,   -4.1,   -4.1,   -4.1,   -4.1,   -4.3,   -3.4,  999.0,   -1.4,  999.0,   -1.4,   -1.5,   -1.6,   -1.6,   -1.6,   -1.6,   -1.6,   -1.5,   -1.5,   -1.5,   -1.5,   -1.5,   -1.5,   -1.5,   -1.4,   -1.4,   -1.4,   -1.3,   -1.2,   -1.1,   -1.0,   -0.9,   -0.9,   -0.9,   -0.9,   -0.8,   -0.7,   -0.7,   -0.6,   -0.7,   -0.6,   -0.6,   -0.6,   -0.6,   -0.6,   -0.6,   -0.5,   -0.5,   -0.4,   -0.4,   -0.3,   -0.2,  999.0,  999.0,  999.0,  999.0,  999.0,  999.0,  999.0,  999.0,  999.0,  999.0,  999.0,  999.0,  999.0
2010/01/12 10:20,    0.0,    0.0,    0.1,    0.1,    0.1,    0.1,    0.1,    0.1,    0.1,    0.1,    0.1,    0.0,    0.1,    0.2,    0.1,    0.3,    0.2,    0.3,    0.3,    0.3,    0.2,    0.2,  999.0,  999.0,   -3.6,   -3.7,   -3.7,   -3.8,   -3.9,   -4.1,   -4.1,   -4.1,   -4.1,   -4.1,   -4.2,   -4.2,   -4.2,   -4.3,   -4.2,   -3.7,   -2.1,   -1.4,   -1.5,   -1.6,   -1.6,   -1.5,   -1.4,   -1.4,   -1.4,   -1.4,   -1.3,   -1.3,   -1.3,   -1.3,   -1.3,   -1.3,   -1.3,   -1.3,   -1.3,   -1.3,   -1.3,   -1.3,   -1.3,   -1.3,   -1.3,   -1.2,   -1.2,   -1.1,   -1.0,   -1.0,   -0.9,   -0.9,   -0.9,   -1.0,   -0.9,   -1.0,   -1.1,   -1.2,   -1.2,   -1.2,   -1.2,   -1.1,   -1.1,   -1.1,   -1.2,  999.0,  999.0,  999.0,  999.0,  999.0,  999.0,  999.0,  999.0,  999.0,  999.0,  999.0,  999.0,  999.0
2010/01/12 10:30,    0.0,    0.0,    0.0,    0.1,    0.1,    0.0,    0.0,    0.1,    0.1,    0.1,    0.0,   -0.0,    0.0,   -0.1,    0.0,    0.0,   -0.1,   -0.0,   -0.0,  999.0,   -0.1,  999.0,  999.0,  999.0,  999.0,  999.0,  999.0,   -3.4,   -3.4,   -3.5,   -3.3,   -3.4,   -3.4,   -3.4,   -3.5,   -3.4,   -3.5,   -3.4,   -3.4,   -3.0,  999.0,   -1.3,   -1.4,   -1.5,   -1.4,   -1.3,   -1.3,   -1.2,   -1.1,   -1.0,   -1.0,   -1.0,   -1.0,   -1.1,   -1.1,   -1.1,   -1.1,   -1.1,   -1.0,   -1.0,   -1.0,   -1.0,   -0.9,   -0.9,   -0.9,   -0.8,   -0.8,   -0.8,   -0.8,   -0.8,   -0.7,   -0.7,   -0.7,   -0.6,   -0.6,   -0.6,   -0.6,   -0.6,   -0.5,   -0.5,   -0.5,   -0.5,   -0.5,   -0.6,  999.0,  999.0,  999.0,  999.0,  999.0,  999.0,  999.0,  999.0,  999.0,  999.0,  999.0,  999.0,  999.0,  999.0
2010/01/12 10:40,    0.0,    0.0,    0.1,    0.1,    0.1,    0.0,    0.0,    0.0,    0.0,    0.1,    0.1,    0.1,    0.0,    0.1,    0.1,    0.1,    0.2,    0.2,    0.2,    0.2,  999.0,   -0.2,   -0.6,  999.0,   -3.5,   -3.5,   -3.4,   -3.7,   -3.6,   -3.5,   -3.5,   -3.5,   -3.5,   -3.5,   -3.4,   -3.5,   -3.7,   -3.8,   -3.8,   -3.2,   -1.9,   -1.5,   -1.4,   -1.6,   -1.6,   -1.6,   -1.6,   -1.4,   -1.3,   -1.3,   -1.2,   -1.2,   -1.1,   -1.1,   -1.1,   -1.1,   -1.1,   -1.0,   -1.0,   -1.0,   -1.0,   -1.0,   -0.9,   -0.9,   -0.9,   -0.9,   -0.9,   -0.9,   -0.9,   -0.9,   -0.8,   -0.8,   -0.7,   -0.7,   -0.7,   -0.7,   -0.7,   -0.8,   -0.8,   -0.8,   -0.8,   -0.8,   -0.8,   -0.8,   -0.7,  999.0,  999.0,  999.0,  999.0,  999.0,  999.0,  999.0,  999.0,  999.0,  999.0,  999.0,  999.0,  999.0
2010/01/12 10:50,   -0.0,    0.0,    0.1,    0.1,    0.1,    0.0,    0.0,    0.1,    0.1,    0.1,    0.0,   -0.8,    0.1,   -0.9,  999.0,   -1.8,   -2.5,   -2.4,   -3.8,   -4.1,   -4.0,   -4.1,   -4.1,   -4.0,   -3.9,   -4.0,   -3.8,   -3.9,   -3.9,   -3.8,   -3.7,   -3.6,   -3.6,   -3.6,   -3.7,   -3.7,   -3.8,   -3.9,   -3.7,   -3.4,   -2.2,   -1.3,   -1.3,   -1.4,   -1.5,   -1.5,   -1.5,   -1.5,   -1.5,   -1.5,   -1.5,   -1.5,   -1.4,   -1.4,   -1.3,   -1.3,   -1.2,   -1.2,   -1.2,   -1.1,   -1.1,   -1.1,   -1.0,   -1.0,   -1.0,   -1.0,   -0.9,   -0.8,   -0.7,   -0.7,   -0.6,   -0.6,   -0.6,   -0.6,   -0.5,   -0.6,   -0.7,   -0.8,   -0.8,   -0.9,   -0.9,   -0.9,   -0.8,   -0.8,   -1.0,  999.0,  999.0,  999.0,  999.0,  999.0,  999.0,  999.0,  999.0,  999.0,  999.0,  999.0,  999.0,  999.0
2010/01/12 11:00,    0.0,    0.0,    0.0,  999.0,  999.0,  999.0,  999.0,  999.0,  999.0,  999.0,  999.0,   -4.9,   -4.5,   -4.3,   -4.3,   -4.3,   -4.4,   -4.3,   -4.3,   -4.4,   -4.3,   -4.3,   -4.2,   -4.4,   -4.4,   -4.7,   -4.4,   -4.6,   -4.7,   -4.5,   -3.6,   -4.2,   -4.7,   -4.7,   -4.8,   -4.8,   -4.9,   -5.4,   -4.6,   -3.7,   -2.4,   -1.6,   -1.4,   -1.5,   -1.5,   -1.6,   -1.6,   -1.6,   -1.6,   -1.6,   -1.6,   -1.5,   -1.4,   -1.3,   -1.3,   -1.2,   -1.3,   -1.3,   -1.3,   -1.3,   -1.3,   -1.3,   -1.2,   -1.1,   -1.0,   -1.0,   -0.9,   -0.9,   -0.8,   -0.7,   -0.7,   -0.9,   -0.9,   -0.8,   -0.9,   -1.0,   -1.0,   -0.9,   -0.9,   -0.9,   -0.8,   -0.8,  999.0,  999.0,  999.0,  999.0,  999.0,  999.0,  999.0,  999.0,  999.0,  999.0,  999.0,  999.0,  999.0,   -0.7,  999.0,  999.0
2010/01/12 11:10,   -5.3,   -5.2,   -5.2,   -5.2,   -5.3,   -5.2,   -5.2,   -5.1,   -5.2,   -5.0,   -4.9,   -4.8,   -4.6,   -4.6,   -4.6,   -4.6,   -4.7,   -4.7,   -4.9,   -5.0,   -5.2,   -5.1,   -5.4,   -5.4,   -5.4,   -5.4,   -5.3,   -5.2,   -5.2,   -5.0,   -4.9,   -4.9,   -5.2,   -5.3,   -5.3,   -5.6,   -6.1,   -5.7,   -6.0,  999.0,  999.0,  999.0,  999.0,   -1.5,   -1.4,   -1.4,   -1.3,   -1.3,   -1.3,   -1.4,   -1.4,   -1.3,   -1.3,   -1.3,   -1.3,   -1.3,   -1.3,   -1.3,   -1.2,   -1.2,   -1.3,   -1.2,   -1.2,   -1.1,   -1.0,   -1.0,   -1.0,   -1.0,   -0.9,   -0.8,   -0.8,   -0.9,   -0.8,   -0.8,   -0.8,   -0.9,   -0.9,   -0.8,   -0.9,   -0.9,  999.0,  999.0,  999.0,  999.0,  999.0,  999.0,  999.0,  999.0,  999.0,  999.0,  999.0,  999.0,  999.0,  999.0,  999.0,  999.0,  999.0,  999.0
2010/01/12 11:20,   -5.3,   -5.3,   -5.2,   -5.3,   -5.3,   -5.2,   -5.2,   -5.0,   -4.8,   -4.6,   -4.6,   -4.5,   -4.4,   -4.3,   -4.5,   -4.6,   -4.3,   -4.3,   -4.4,   -4.4,   -4.3,   -4.2,   -4.0,   -4.0,   -4.2,   -4.3,   -4.3,   -4.1,   -4.1,   -4.1,   -4.0,   -3.9,   -4.0,   -3.8,   -3.9,   -4.0,   -4.1,   -4.2,   -4.2,   -3.7,  999.0,   -1.9,  999.0,   -1.5,   -1.5,   -1.4,   -1.5,   -1.4,   -1.3,   -1.3,   -1.3,   -1.2,   -1.2,   -1.3,   -1.2,   -1.1,   -1.1,   -1.0,   -1.0,   -1.0,   -0.9,   -0.8,   -0.8,   -0.8,   -0.8,   -0.8,   -0.7,   -0.7,   -0.7,   -0.7,   -0.7,   -0.7,   -0.8,   -0.8,   -0.9,   -1.0,   -1.0,   -0.9,  999.0,  999.0,  999.0,  999.0,  999.0,  999.0,  999.0,  999.0,  999.0,  999.0,  999.0,  999.0,  999.0,  999.0,  999.0,  999.0,  999.0,  999.0,  999.0,  999.0
2010/01/12 11:30,   -4.6,   -4.5,   -4.3,   -4.3,   -4.2,   -4.0,   -4.0,   -3.8,   -3.6,   -3.4,   -3.3,   -3.2,   -3.1,   -3.0,   -2.9,   -2.7,   -2.9,   -2.7,   -1.8,   -1.7,   -1.6,   -1.5,   -2.2,   -1.3,   -2.0,  999.0,  999.0,   -4.4,   -3.9,   -3.7,   -3.6,   -3.5,   -3.4,   -3.4,   -3.4,   -3.6,   -3.5,   -3.8,   -3.9,   -3.8,   -3.7,  999.0,  999.0,  999.0,   -0.7,   -0.8,   -0.8,   -0.9,   -0.8,   -0.7,   -0.8,   -0.9,   -0.9,   -1.0,   -1.0,   -1.1,   -1.0,   -1.0,   -1.0,   -0.9,   -0.9,   -0.8,   -0.7,   -0.6,   -0.6,   -0.6,   -0.6,  999.0,  999.0,  999.0,  999.0,  999.0,  999.0,  999.0,  999.0,  999.0,  999.0,  999.0,  999.0,  999.0,  999.0,  999.0,  999.0,  999.0,  999.0,  999.0,  999.0,  999.0,  999.0,  999.0,  999.0,  999.0,  999.0,  999.0,  999.0,  999.0,  999.0,  999.0
2010/01/12 11:40,  999.0,   -2.1,   -2.6,   -2.4,   -2.4,   -2.3,   -3.5,   -2.2,   -2.1,   -2.1,   -2.0,   -2.0,   -1.9,   -1.8,   -1.6,   -2.3,  999.0,   -0.1,   -0.1,   -0.1,   -0.1,   -0.1,   -0.1,   -0.0,   -0.0,  999.0,  999.0,  999.0,  999.0,  999.0,   -0.8,   -0.0,   -0.0,   -0.2,   -0.1,  999.0,    0.1,  999.0,  999.0,  999.0,  999.0,  999.0,   -0.8,    0.3,  999.0,  999.0,   -0.4,   -0.6,   -0.6,   -0.6,   -0.5,   -0.6,   -0.8,   -0.7,   -0.7,   -0.8,   -0.9,   -1.1,  999.0,  999.0,  999.0,  999.0,  999.0,  999.0,  999.0,  999.0,  999.0,  999.0,   -1.0,  999.0,  999.0,  999.0,  999.0,  999.0,  999.0,  999.0,  999.0,  999.0,  999.0,  999.0,  999.0,  999.0,  999.0,  999.0,  999.0,   -1.0,  999.0,  999.0,  999.0,  999.0,  999.0,  999.0,  999.0,  999.0,  999.0,  999.0,  999.0,  999.0
2010/01/12 11:50,    0.0,   -0.0,    0.0,    0.1,    0.1,    0.0,    0.0,    0.0,    0.1,    0.1,    0.1,    0.0,    0.0,   -0.0,    0.0,   -0.1,   -0.1,   -0.1,   -0.2,   -0.3,   -0.3,   -0.3,   -0.2,   -0.2,   -0.3,  999.0,  999.0,  999.0,  999.0,    0.2,    0.0,    0.0,  999.0,    0.2,    0.2,    0.1,    0.1,  999.0,  999.0,  999.0,  999.0,  999.0,  999.0,  999.0,  999.0,  999.0,  999.0,  999.0,  999.0,  999.0,  999.0,  999.0,  999.0,  999.0,  999.0,  999.0,  999.0,  999.0,  999.0,  999.0,   -0.9,   -0.9,   -0.7,   -0.7,   -0.8,   -0.8,   -0.7,   -0.8,   -0.8,   -0.8,  999.0,  999.0,  999.0,  999.0,  999.0,  999.0,  999.0,  999.0,  999.0,  999.0,  999.0,  999.0,  999.0,  999.0,  999.0,  999.0,  999.0,  999.0,  999.0,  999.0,  999.0,  999.0,  999.0,  999.0,  999.0,  999.0,  999.0,  999.0
2010/01/12 12:00,    0.0,    0.0,    0.0,    0.1,    0.1,    0.0,    0.0,   -0.0,   -0.1,   -0.0,   -0.1,   -0.1,   -0.0,   -0.0,   -0.0,   -0.1,   -0.2,   -0.2,   -0.3,   -0.4,   -0.3,   -0.3,   -0.3,   -0.3,   -0.2,   -0.3,   -0.2,   -0.2,   -0.3,   -0.2,   -0.2,   -0.0,   -0.2,   -0.2,   -0.1,   -0.0,    0.1,  999.0,   -0.0,  999.0,  999.0,    0.2,  999.0,  999.0,  999.0,  999.0,  999.0,  999.0,  999.0,  999.0,  999.0,   -1.4,   -1.3,   -1.4,   -1.3,   -1.3,   -1.3,   -1.3,   -1.2,   -1.1,   -1.1,   -1.1,   -1.1,   -1.1,   -1.0,   -1.0,   -1.0,   -1.0,   -1.1,   -1.1,   -1.1,   -1.1,   -1.1,   -1.2,   -1.0,  999.0,  999.0,  999.0,  999.0,  999.0,  999.0,  999.0,  999.0,  999.0,  999.0,  999.0,  999.0,  999.0,  999.0,  999.0,  999.0,  999.0,  999.0,  999.0,  999.0,  999.0,  999.0,  999.0
2010/01/12 12:10,   -0.0,   -0.0,    0.0,    0.1,    0.1,    0.0,    0.0,    0.0,    0.0,    0.0,    0.0,    0.1,    0.0,    0.0,    0.0,    0.0,   -0.0,   -0.0,   -0.1,   -0.2,   -0.2,   -0.2,   -0.2,   -0.2,   -0.2,   -0.3,   -0.3,   -0.4,   -0.3,   -0.4,   -0.4,   -0.4,   -0.4,   -0.3,   -0.3,  999.0,  999.0,  999.0,  999.0,  999.0,  999.0,  999.0,    0.2,    0.1,  999.0,  999.0,  999.0,  999.0,  999.0,   -1.4,   -1.7,   -1.2,   -1.4,   -1.5,   -1.5,   -1.6,   -1.6,   -1.6,   -1.7,   -1.6,   -1.5,   -1.4,   -1.4,   -1.4,   -1.4,   -1.4,   -1.4,   -1.3,   -1.3,   -1.2,  999.0,  999.0,  999.0,   -1.2,  999.0,  999.0,  999.0,  999.0,  999.0,  999.0,  999.0,  999.0,  999.0,  999.0,  999.0,  999.0,  999.0,  999.0,  999.0,  999.0,  999.0,  999.0,  999.0,  999.0,  999.0,  999.0,  999.0,  999.0
2010/01/12 12:20,   -0.6,   -0.3,   -0.4,   -0.4,   -0.4,   -0.4,   -0.4,   -0.4,   -0.7,   -0.5,   -0.5,   -0.5,   -0.5,   -0.5,   -0.6,    0.2,    0.4,    0.4,    0.0,    0.0,    0.4,    0.3,    0.3,    0.3,    0.1,    0.1,    0.1,   -0.0,   -0.2,   -0.1,   -0.0,    0.0,   -0.0,    0.0,    0.0,  999.0,    0.1,    0.3,  999.0,   -0.3,   -0.3,   -0.2,   -0.1,   -0.5,   -0.3,  999.0,  999.0,    0.1,   -0.5,   -1.0,   -1.3,   -1.5,   -1.7,   -1.5,   -1.5,   -1.5,   -1.5,   -1.5,   -1.6,   -1.6,   -1.5,   -1.4,   -1.4,   -1.3,   -1.1,   -1.1,   -1.0,   -1.0,   -0.9,  999.0,  999.0,  999.0,  999.0,  999.0,  999.0,  999.0,  999.0,  999.0,  999.0,  999.0,  999.0,  999.0,  999.0,  999.0,  999.0,  999.0,  999.0,  999.0,  999.0,  999.0,  999.0,  999.0,  999.0,  999.0,  999.0,  999.0,  999.0,  999.0
2010/01/12 12:30,   -1.6,    0.0,    0.0,    0.0,   -1.8,   -2.7,   -3.2,   -3.7,   -3.7,   -3.7,   -3.7,   -3.6,   -3.4,   -3.2,   -2.8,   -2.6,   -2.2,   -1.7,   -1.0,   -1.3,    0.2,    0.1,    0.1,    0.0,    0.1,    0.2,    0.2,  999.0,    0.1,   -0.0,    0.0,    0.2,    0.2,    0.2,  999.0,    0.1,   -0.1,   -0.2,   -0.1,  999.0,   -0.1,   -0.2,   -0.1,   -0.1,   -0.0,  999.0,   -0.1,   -0.0,   -0.6,   -1.0,   -1.1,   -1.3,   -1.4,   -1.3,   -1.2,   -1.2,   -1.2,   -1.2,   -1.2,   -1.1,   -1.1,   -1.0,   -1.0,   -0.9,   -0.9,   -0.9,   -0.9,   -0.8,   -0.8,  999.0,   -0.7,  999.0,  999.0,  999.0,   -0.8,  999.0,  999.0,  999.0,  999.0,  999.0,  999.0,  999.0,  999.0,  999.0,  999.0,  999.0,  999.0,  999.0,  999.0,  999.0,  999.0,  999.0,  999.0,  999.0,  999.0,  999.0,  999.0,  999.0
2010/01/12 12:40,    0.0,    0.0,    0.0,    0.1,    0.0,    0.0,    0.0,    0.0,    0.0,    0.0,    0.0,   -0.0,   -0.0,   -0.0,    0.0,   -0.0,   -0.0,   -0.0,    0.0,    0.1,    0.1,    0.1,    0.2,    0.2,    0.3,    0.3,    0.0,    0.2,    0.3,    0.2,    0.1,    0.1,  999.0,    0.0,   -0.3,  999.0,    0.0,    0.0,   -0.3,   -0.0,   -0.1,   -0.0,   -0.1,   -0.0,   -0.1,    0.0,   -0.0,   -0.1,    0.1,  999.0,   -0.7,   -0.8,   -0.9,   -0.9,   -0.8,   -0.8,   -0.9,   -1.0,   -1.0,   -1.0,   -1.0,   -1.0,   -1.0,   -1.0,   -1.0,   -1.0,   -0.9,   -0.8,  999.0,  999.0,  999.0,  999.0,  999.0,  999.0,  999.0,  999.0,  999.0,  999.0,  999.0,  999.0,  999.0,  999.0,  999.0,  999.0,  999.0,  999.0,  999.0,  999.0,  999.0,  999.0,  999.0,  999.0,  999.0,  999.0,  999.0,  999.0,  999.0,  999.0
2010/01/12 12:50,    0.0,    0.0,    0.0,    0.1,    0.0,    0.0,    0.0,    0.0,    0.0,    0.0,   -0.0,   -0.0,   -0.0,    0.0,    0.0,    0.1,    0.1,    0.2,    0.1,    0.2,    0.2,    0.2,   -0.4,   -0.0,   -0.7,   -0.4,   -0.6,    0.6,    0.5,    0.3,    0.5,    0.4,   -1.2,   -1.4,   -0.8,   -0.8,   -0.8,  999.0,  999.0,  999.0,  999.0,  999.0,   -0.9,   -1.1,   -0.6,   -0.5,  999.0,  999.0,    0.2,   -0.9,   -0.7,   -0.7,   -0.8,   -0.9,   -1.0,   -1.1,   -1.2,   -1.2,   -1.2,   -1.2,   -1.1,   -1.1,   -1.1,   -1.1,   -1.1,   -1.2,  999.0,  999.0,  999.0,  999.0,  999.0,  999.0,  999.0,  999.0,  999.0,  999.0,  999.0,  999.0,  999.0,  999.0,  999.0,  999.0,  999.0,  999.0,  999.0,  999.0,  999.0,  999.0,  999.0,  999.0,  999.0,  999.0,  999.0,  999.0,  999.0,  999.0,  999.0,  999.0
2010/01/12 13:00,  999.0,  999.0,  999.0,  999.0,  999.0,   -4.9,   -5.0,   -5.1,   -5.3,   -5.3,   -5.3,   -5.4,   -5.4,   -5.5,   -5.4,   -5.5,   -5.5,   -5.5,   -5.6,   -5.5,   -5.5,   -5.7,   -5.8,   -5.8,   -5.7,   -5.5,   -5.4,   -5.3,   -5.1,   -4.8,   -4.6,   -4.6,   -4.3,   -4.4,   -4.4,   -4.4,   -4.4,   -4.2,   -4.3,   -4.2,   -3.0,   -2.0,   -1.3,   -0.7,   -0.5,   -0.5,  999.0,  999.0,   -0.7,   -0.4,   -0.5,   -0.6,   -0.5,   -0.6,   -0.7,   -0.8,   -0.9,   -0.9,   -0.9,   -0.9,   -0.8,   -0.6,   -0.4,  999.0,  999.0,  999.0,  999.0,  999.0,  999.0,  999.0,  999.0,  999.0,  999.0,  999.0,  999.0,  999.0,  999.0,  999.0,  999.0,  999.0,  999.0,  999.0,  999.0,  999.0,  999.0,  999.0,  999.0,  999.0,  999.0,  999.0,  999.0,  999.0,  999.0,  999.0,  999.0,  999.0,  999.0,  999.0
2010/01/12 13:10,  999.0,    0.0,   -0.6,   -1.7,   -2.9,   -4.2,   -4.1,   -4.7,   -4.7,   -4.7,   -5.7,   -5.7,   -5.6,   -5.7,   -5.8,   -5.9,   -5.9,   -6.0,   -5.9,   -5.8,   -5.8,   -6.0,   -6.4,   -6.2,   -6.2,   -6.4,   -6.3,   -6.2,   -5.9,   -5.8,   -5.6,   -5.6,   -5.6,   -5.4,   -5.5,   -5.2,   -5.3,   -5.2,   -5.1,   -5.2,   -4.4,  999.0,  999.0,  999.0,   -0.8,  999.0,  999.0,  999.0,  999.0,   -0.7,   -0.6,   -0.7,   -0.7,   -0.8,   -0.9,   -0.9,   -1.0,   -1.0,   -0.9,   -1.0,  999.0,  999.0,  999.0,  999.0,  999.0,  999.0,  999.0,  999.0,  999.0,  999.0,  999.0,  999.0,  999.0,  999.0,  999.0,  999.0,  999.0,  999.0,  999.0,  999.0,  999.0,  999.0,  999.0,  999.0,  999.0,  999.0,  999.0,  999.0,  999.0,  999.0,  999.0,  999.0,  999.0,  999.0,  999.0,  999.0,  999.0,  999.0
2010/01/12 13:20,   -4.7,   -3.8,   -3.8,   -4.6,   -4.6,   -4.6,   -4.8,   -4.7,   -4.7,   -4.6,   -4.9,   -4.8,   -4.7,   -4.6,   -4.5,   -4.4,   -4.2,   -4.2,   -4.1,   -4.1,   -4.1,   -4.0,   -3.7,   -3.6,   -3.5,   -3.4,   -3.5,   -3.5,   -3.2,   -3.1,   -3.1,   -3.3,   -3.5,   -3.5,   -3.5,   -3.4,   -3.7,   -3.6,   -3.4,   -3.2,   -3.2,   -1.3,   -1.1,   -1.0,   -0.7,   -0.6,   -0.7,   -0.8,   -0.8,   -0.8,   -1.0,   -0.9,   -1.0,   -1.0,   -0.9,   -1.0,   -1.0,   -1.1,   -1.1,  999.0,  999.0,  999.0,  999.0,  999.0,  999.0,  999.0,  999.0,  999.0,  999.0,  999.0,  999.0,  999.0,  999.0,  999.0,  999.0,  999.0,  999.0,  999.0,  999.0,  999.0,  999.0,  999.0,  999.0,  999.0,  999.0,  999.0,  999.0,  999.0,  999.0,   -1.0,   -1.1,   -1.0,   -1.0,   -0.9,   -0.9,   -0.9,   -0.8,   -0.9
2010/01/12 13:30,   -2.8,   -2.4,   -2.2,   -2.5,   -2.8,   -3.1,   -3.4,   -3.3,   -3.4,   -4.7,   -5.0,   -5.2,   -5.2,   -4.5,   -3.8,   -3.6,   -3.4,   -3.3,   -3.1,   -2.8,   -2.8,   -3.5,   -3.6,   -3.6,   -3.6,   -3.6,   -3.7,   -3.9,   -4.0,   -3.8,   -3.8,   -3.8,   -4.0,   -4.4,   -4.6,   -4.6,   -4.6,   -4.8,   -4.6,   -3.8,  999.0,  999.0,  999.0,   -2.1,   -2.0,   -1.6,   -1.4,   -1.2,   -1.0,   -0.8,   -0.8,   -0.9,   -1.0,   -0.8,   -0.9,   -0.8,   -0.8,  999.0,  999.0,  999.0,  999.0,  999.0,  999.0,  999.0,  999.0,  999.0,  999.0,  999.0,  999.0,  999.0,  999.0,  999.0,  999.0,  999.0,  999.0,  999.0,  999.0,  999.0,  999.0,  999.0,  999.0,  999.0,  999.0,  999.0,  999.0,  999.0,  999.0,  999.0,  999.0,   -0.9,   -0.8,   -0.9,   -0.8,   -0.8,   -0.7,   -0.5,   -0.5,  999.0
2010/01/12 13:40,    0.0,    0.0,   -0.2,   -0.3,   -0.3,   -0.4,   -0.4,   -0.5,   -0.7,   -0.6,    0.0,   -0.6,   -0.5,   -0.4,   -1.0,   -1.4,  999.0,   -3.1,   -2.8,   -2.9,   -3.0,   -3.3,   -3.3,   -3.2,   -3.4,   -3.1,   -3.4,   -3.4,   -3.4,   -3.5,   -3.5,   -3.5,   -3.4,   -3.4,   -3.3,   -3.2,   -3.4,  999.0,   -2.8,  999.0,  999.0,   -1.5,   -1.7,   -1.8,   -1.8,   -1.6,   -1.5,   -1.4,   -1.4,   -1.3,   -1.1,   -1.0,   -0.9,   -0.7,   -0.6,   -0.7,  999.0,  999.0,  999.0,  999.0,  999.0,  999.0,  999.0,   -0.4,  999.0,  999.0,  999.0,  999.0,  999.0,  999.0,  999.0,  999.0,  999.0,  999.0,  999.0,  999.0,  999.0,  999.0,  999.0,  999.0,  999.0,  999.0,  999.0,  999.0,  999.0,  999.0,  999.0,  999.0,  999.0,  999.0,  999.0,   -1.0,  999.0,   -0.8,   -0.7,  999.0,  999.0,  999.0
2010/01/12 13:50,   -4.4,   -3.2,   -3.4,   -3.4,   -3.4,   -3.4,   -3.3,   -3.2,   -3.2,   -3.1,   -3.0,   -2.9,   -2.7,   -2.3,   -1.3,   -1.2,   -1.7,   -3.1,   -2.9,  999.0,  999.0,    0.2,    0.2,  999.0,  999.0,  999.0,  999.0,  999.0,  999.0,  999.0,  999.0,    0.2,    0.1,    0.1,    0.1,   -0.9,   -1.0,   -0.0,   -2.4,   -1.4,   -1.3,   -1.0,   -0.9,   -1.0,   -1.2,   -1.2,   -1.2,   -1.2,   -1.2,   -1.2,   -1.1,   -1.0,   -0.9,   -0.7,   -0.7,   -0.6,   -1.0,  999.0,  999.0,  999.0,  999.0,  999.0,   -0.7,  999.0,  999.0,  999.0,  999.0,  999.0,  999.0,  999.0,  999.0,  999.0,  999.0,  999.0,  999.0,  999.0,  999.0,  999.0,  999.0,  999.0,  999.0,  999.0,  999.0,  999.0,  999.0,  999.0,  999.0,  999.0,  999.0,  999.0,  999.0,  999.0,  999.0,  999.0,  999.0,  999.0,  999.0,  999.0
2010/01/12 14:00,    0.0,   -0.0,    0.1,    0.1,    0.1,    0.0,    0.1,    0.1,    0.1,   -1.6,   -1.2,   -1.2,   -1.2,   -1.1,   -1.4,   -1.8,   -2.5,   -3.1,   -2.8,  999.0,  999.0,   -3.3,   -3.5,   -3.4,   -3.4,   -4.2,   -4.2,   -4.2,   -4.1,   -4.1,   -3.9,   -3.8,   -3.8,   -3.2,   -3.8,   -3.8,   -3.7,   -3.2,   -3.1,   -2.5,  999.0,  999.0,   -1.5,   -1.3,   -1.2,   -1.1,   -1.1,   -0.9,   -0.8,   -0.9,   -0.8,   -0.9,   -0.8,   -0.6,   -0.5,   -0.4,   -0.6,   -0.6,   -0.7,  999.0,  999.0,  999.0,  999.0,  999.0,  999.0,  999.0,  999.0,  999.0,  999.0,  999.0,  999.0,  999.0,  999.0,  999.0,  999.0,  999.0,  999.0,  999.0,  999.0,  999.0,  999.0,  999.0,  999.0,  999.0,  999.0,  999.0,  999.0,  999.0,  999.0,  999.0,  999.0,  999.0,  999.0,  999.0,  999.0,  999.0,  999.0,  999.0
2010/01/12 14:10,    0.0,    0.0,    0.0,    0.1,    0.0,   -0.0,    0.0,    0.0,   -0.0,    0.0,   -0.0,   -0.0,    0.0,    0.0,    0.0,    0.0,  999.0,  999.0,  999.0,   -4.3,   -4.1,   -4.0,   -4.2,   -4.6,   -4.5,   -4.6,   -4.8,   -4.7,   -4.5,   -4.3,   -4.6,   -4.3,   -4.4,   -4.3,   -4.1,   -4.1,   -3.6,   -3.7,  999.0,   -2.4,   -1.5,   -0.7,   -1.3,   -1.1,   -1.0,   -1.0,   -0.9,   -0.8,   -0.8,   -0.7,   -0.7,   -0.6,   -0.6,   -0.4,   -0.5,  999.0,  999.0,   -0.7,   -0.7,  999.0,  999.0,  999.0,  999.0,  999.0,  999.0,  999.0,  999.0,  999.0,  999.0,  999.0,  999.0,  999.0,  999.0,  999.0,  999.0,  999.0,  999.0,  999.0,  999.0,  999.0,  999.0,  999.0,  999.0,  999.0,  999.0,  999.0,  999.0,  999.0,  999.0,  999.0,  999.0,  999.0,  999.0,  999.0,  999.0,  999.0,  999.0,  999.0
2010/01/12 14:20,    0.0,    0.0,    0.0,    0.1,    0.1,    0.0,    0.1,    0.1,    0.0,    0.0,    0.0,    0.0,    0.1,    0.1,    0.1,    0.2,    0.2,    0.2,  999.0,   -1.4,  999.0,  999.0,   -3.6,   -3.5,   -3.2,   -3.2,   -3.3,   -3.2,   -3.1,   -3.0,   -2.9,   -2.8,   -2.7,   -2.7,   -2.5,   -1.9,  999.0,    0.0,  999.0,  999.0,  999.0,  999.0,  999.0,  999.0,  999.0,  999.0,  999.0,  999.0,  999.0,  999.0,   -0.8,   -0.6,   -0.6,   -0.5,   -0.6,   -0.4,  999.0,  999.0,  999.0,  999.0,  999.0,  999.0,  999.0,  999.0,  999.0,  999.0,  999.0,  999.0,  999.0,  999.0,  999.0,  999.0,  999.0,  999.0,  999.0,  999.0,  999.0,  999.0,  999.0,  999.0,  999.0,  999.0,  999.0,  999.0,  999.0,  999.0,  999.0,  999.0,  999.0,  999.0,  999.0,  999.0,  999.0,  999.0,  999.0,  999.0,  999.0,  999.0
2010/01/12 14:30,    0.0,    0.0,    0.1,    0.1,    0.0,    0.0,    0.1,    0.1,    0.1,    0.1,    0.1,    0.1,    0.1,    0.2,    0.1,    0.3,    0.4,    0.5,    0.4,    0.5,    0.5,    0.4,   -0.9,  999.0,   -2.1,   -2.3,   -2.6,   -2.6,   -2.6,   -3.2,   -2.9,   -2.9,  999.0,   -2.6,   -0.9,  999.0,    0.1,    0.3,    0.2,  999.0,  999.0,  999.0,    0.1,    0.1,  999.0,    0.1,  999.0,  999.0,  999.0,  999.0,  999.0,  999.0,  999.0,  999.0,  999.0,  999.0,  999.0,  999.0,  999.0,  999.0,  999.0,  999.0,  999.0,  999.0,  999.0,  999.0,  999.0,  999.0,  999.0,  999.0,  999.0,  999.0,  999.0,  999.0,  999.0,  999.0,  999.0,  999.0,  999.0,  999.0,  999.0,  999.0,  999.0,  999.0,  999.0,  999.0,  999.0,  999.0,  999.0,  999.0,  999.0,  999.0,  999.0,  999.0,  999.0,  999.0,  999.0,  999.0
2010/01/12 14:40,   -0.0,    0.0,    0.1,    0.1,    0.2,    0.0,    0.2,    0.0,    0.0,    0.1,    0.1,    0.2,    0.2,    0.4,    0.3,    0.5,    0.5,    0.4,    0.4,    0.4,    0.3,    0.1,    0.1,  999.0,  999.0,  999.0,  999.0,    0.3,  999.0,  999.0,    0.0,  999.0,    0.2,    0.2,    0.3,    0.2,    0.2,    0.1,  999.0,  999.0,  999.0,  999.0,  999.0,  999.0,  999.0,    0.3,  999.0,  999.0,  999.0,  999.0,  999.0,  999.0,  999.0,  999.0,  999.0,  999.0,  999.0,  999.0,  999.0,  999.0,  999.0,  999.0,  999.0,  999.0,  999.0,  999.0,  999.0,  999.0,  999.0,  999.0,  999.0,  999.0,  999.0,  999.0,  999.0,  999.0,  999.0,  999.0,  999.0,  999.0,  999.0,  999.0,  999.0,  999.0,  999.0,  999.0,  999.0,  999.0,  999.0,  999.0,  999.0,  999.0,  999.0,  999.0,  999.0,  999.0,  999.0,  999.0
2010/01/12 14:50,    0.0,    0.0,    0.0,    0.1,    0.1,    0.0,    0.1,    0.1,    0.1,    0.1,    0.1,    0.0,    0.1,    0.1,    0.0,    0.1,  999.0,    0.5,    0.3,    0.3,  999.0,    0.1,   -0.0,   -0.1,  999.0,    0.2,   -0.0,  999.0,  999.0,   -0.2,   -0.0,   -0.0,    0.2,   -0.1,   -0.0,   -0.0,   -0.2,   -0.0,   -0.1,    0.1,    0.0,   -0.0,  999.0,  999.0,  999.0,   -0.2,  999.0,  999.0,  999.0,  999.0,  999.0,  999.0,  999.0,  999.0,  999.0,  999.0,  999.0,  999.0,  999.0,  999.0,  999.0,  999.0,  999.0,  999.0,  999.0,  999.0,  999.0,  999.0,  999.0,  999.0,  999.0,  999.0,  999.0,  999.0,  999.0,  999.0,  999.0,  999.0,  999.0,  999.0,  999.0,  999.0,  999.0,  999.0,  999.0,  999.0,  999.0,  999.0,  999.0,  999.0,  999.0,  999.0,  999.0,  999.0,  999.0,  999.0,  999.0,  999.0
2010/01/12 15:00,    0.0,   -0.0,    0.1,    0.1,    0.1,    0.0,    0.0,    0.0,    0.0,    0.1,    0.1,    0.2,    0.1,    0.1,    0.0,    0.1,  999.0,  999.0,    0.5,    0.4,  999.0,    0.1,    0.0,  999.0,    0.2,    0.1,  999.0,  999.0,  999.0,   -0.0,    0.1,    0.1,  999.0,    0.1,    0.1,    0.2,    0.0,    0.1,  999.0,  999.0,    0.0,   -0.1,  999.0,  999.0,    0.0,  999.0,    0.1,   -0.0,   -0.1,  999.0,  999.0,  999.0,  999.0,  999.0,  999.0,  999.0,  999.0,  999.0,  999.0,  999.0,  999.0,  999.0,  999.0,  999.0,  999.0,  999.0,  999.0,  999.0,  999.0,  999.0,  999.0,  999.0,  999.0,  999.0,  999.0,  999.0,  999.0,  999.0,  999.0,  999.0,  999.0,  999.0,  999.0,  999.0,  999.0,  999.0,  999.0,  999.0,  999.0,  999.0,  999.0,  999.0,  999.0,  999.0,  999.0,  999.0,  999.0,  999.0
2010/01/12 15:10,    0.1,    0.0,    0.0,    0.1,    0.0,    0.0,    0.0,    0.0,    0.0,    0.1,    0.1,    0.1,    0.2,    0.3,    0.1,    0.2,  999.0,  999.0,    0.4,    0.5,    0.6,    0.4,    0.5,    0.4,    0.4,  999.0,  999.0,  999.0,    0.2,    0.3,    0.5,    0.4,    0.4,    0.4,    0.3,    0.2,  999.0,  999.0,  999.0,  999.0,    0.0,  999.0,  999.0,  999.0,    0.0,  999.0,  999.0,    0.2,    0.1,    0.1,    0.2,  999.0,  999.0,  999.0,  999.0,  999.0,  999.0,  999.0,  999.0,  999.0,  999.0,  999.0,  999.0,  999.0,  999.0,  999.0,  999.0,  999.0,  999.0,  999.0,  999.0,  999.0,  999.0,  999.0,  999.0,  999.0,  999.0,  999.0,  999.0,  999.0,  999.0,  999.0,  999.0,  999.0,  999.0,  999.0,  999.0,  999.0,  999.0,  999.0,  999.0,  999.0,  999.0,  999.0,  999.0,  999.0,  999.0,  999.0
2010/01/12 15:20,    0.0,    0.0,    0.0,    0.0,    0.0,    0.0,    0.0,    0.0,    0.0,    0.0,    0.0,    0.0,    0.1,    0.4,    0.1,    0.4,    0.6,    0.3,    0.5,    0.5,    0.4,    0.2,    0.3,    0.6,    0.6,    0.6,    0.1,  999.0,  999.0,    0.3,    0.4,    0.2,    0.3,    0.5,    0.3,    0.3,    0.1,    0.1,  999.0,  999.0,  999.0,  999.0,   -0.1,  999.0,  999.0,  999.0,  999.0,  999.0,   -0.3,   -0.1,   -0.1,  999.0,  999.0,  999.0,  999.0,  999.0,  999.0,   -0.5,  999.0,  999.0,  999.0,  999.0,  999.0,  999.0,  999.0,  999.0,  999.0,  999.0,  999.0,  999.0,  999.0,  999.0,  999.0,  999.0,  999.0,  999.0,  999.0,  999.0,  999.0,  999.0,  999.0,  999.0,  999.0,  999.0,  999.0,  999.0,  999.0,  999.0,  999.0,  999.0,  999.0,  999.0,  999.0,  999.0,  999.0,  999.0,  999.0,  999.0
2010/01/12 15:30,    0.1,    0.0,    0.0,    0.1,    0.0,    0.0,   -0.0,   -0.0,    0.0,    0.1,    0.0,    0.0,    0.1,    0.3,    0.1,    0.4,    0.5,  999.0,    0.4,    0.5,    0.4,    0.3,    0.3,    0.4,    0.4,    0.3,   -0.0,    0.1,    0.2,    0.4,    0.4,    0.4,    0.4,  999.0,  999.0,    0.1,    0.1,    0.0,  999.0,  999.0,  999.0,  999.0,    0.0,  999.0,  999.0,  999.0,  999.0,  999.0,  999.0,   -0.2,    0.0,    0.1,  999.0,  999.0,  999.0,  999.0,  999.0,  999.0,  999.0,  999.0,  999.0,  999.0,  999.0,  999.0,  999.0,  999.0,  999.0,  999.0,  999.0,  999.0,  999.0,  999.0,  999.0,  999.0,  999.0,  999.0,  999.0,  999.0,  999.0,  999.0,  999.0,  999.0,  999.0,  999.0,  999.0,  999.0,  999.0,  999.0,  999.0,  999.0,  999.0,  999.0,  999.0,  999.0,  999.0,  999.0,  999.0,  999.0
2010/01/12 15:40,    0.0,    0.0,    0.0,    0.0,    0.1,    0.0,    0.0,    0.0,    0.0,    0.1,    0.1,    0.0,    0.0,    0.1,    0.0,    0.2,    0.5,    0.5,    0.5,    0.5,    0.3,    0.3,    0.2,    0.3,    0.1,  999.0,    0.0,    0.1,    0.2,    0.3,    0.1,    0.2,    0.1,    0.2,    0.1,  999.0,    0.3,    0.2,    0.4,  999.0,    0.1,  999.0,    0.1,    0.1,  999.0,  999.0,  999.0,  999.0,    0.1,    0.2,    0.3,    0.1,    0.2,   -0.0,  999.0,  999.0,  999.0,  999.0,  999.0,  999.0,  999.0,  999.0,  999.0,  999.0,  999.0,  999.0,  999.0,  999.0,  999.0,  999.0,  999.0,  999.0,  999.0,  999.0,  999.0,  999.0,  999.0,  999.0,  999.0,  999.0,  999.0,  999.0,  999.0,  999.0,  999.0,  999.0,  999.0,  999.0,  999.0,  999.0,  999.0,  999.0,  999.0,  999.0,  999.0,  999.0,  999.0,  999.0
2010/01/12 15:50,    0.0,    0.0,    0.0,    0.1,    0.1,    0.1,    0.0,    0.0,    0.0,    0.1,    0.0,    0.0,    0.0,    0.2,    0.1,    0.5,    0.6,  999.0,  999.0,    0.5,    0.5,    0.3,    0.2,    0.2,    0.2,  999.0,  999.0,  999.0,    0.2,    0.3,    0.3,    0.3,    0.4,  999.0,    0.2,    0.3,  999.0,    0.1,    0.1,  999.0,    0.1,   -0.1,   -0.0,  999.0,  999.0,  999.0,  999.0,   -0.2,  999.0,    0.0,    0.2,  999.0,  999.0,    0.2,  999.0,  999.0,  999.0,  999.0,  999.0,  999.0,  999.0,  999.0,  999.0,   -0.9,   -1.0,  999.0,   -0.7,   -0.7,   -0.7,   -0.6,   -0.5,   -0.5,  999.0,  999.0,  999.0,  999.0,  999.0,  999.0,  999.0,  999.0,  999.0,  999.0,  999.0,  999.0,  999.0,  999.0,  999.0,  999.0,  999.0,  999.0,  999.0,  999.0,  999.0,  999.0,  999.0,  999.0,  999.0,  999.0
2010/01/12 16:00,    0.0,    0.0,    0.0,    0.1,    0.1,    0.0,    0.0,    0.0,    0.0,    0.0,    0.0,    0.0,    0.0,    0.1,    0.0,    0.4,    0.6,    0.6,    0.7,    0.6,    0.5,    0.2,    0.2,    0.3,    0.4,    0.2,    0.3,    0.5,    0.3,    0.3,    0.3,    0.3,    0.3,    0.3,    0.2,    0.2,  999.0,    0.0,    0.1,  999.0,  999.0,    0.0,   -0.1,  999.0,  999.0,  999.0,   -0.0,   -0.1,   -0.1,   -0.0,    0.1,    0.2,    0.2,   -0.0,  999.0,  999.0,  999.0,  999.0,  999.0,  999.0,  999.0,  999.0,   -0.7,   -0.6,   -0.6,   -0.7,   -0.7,   -0.7,   -0.7,   -0.6,   -0.6,   -0.8,   -0.8,  999.0,   -1.1,   -1.1,   -1.1,   -1.2,  999.0,  999.0,  999.0,  999.0,  999.0,  999.0,  999.0,  999.0,  999.0,  999.0,  999.0,  999.0,  999.0,  999.0,  999.0,  999.0,  999.0,  999.0,  999.0,  999.0
2010/01/12 16:10,    0.0,    0.0,    0.0,    0.0,   -0.0,   -0.0,   -0.0,    0.0,   -0.0,    0.0,    0.0,    0.0,    0.0,    0.1,    0.0,    0.0,    0.0,  999.0,  999.0,  999.0,   -0.0,   -0.0,   -0.1,   -0.0,  999.0,    0.0,  999.0,  999.0,    0.1,    0.5,    0.4,  999.0,  999.0,    0.5,    0.4,    0.3,    0.5,  999.0,    0.3,  999.0,    0.4,   -0.1,   -0.1,  999.0,   -0.3,   -0.2,  999.0,  999.0,   -0.1,    0.1,    0.2,    0.1,    0.0,   -0.0,  999.0,  999.0,  999.0,  999.0,  999.0,  999.0,  999.0,  999.0,  999.0,   -0.7,   -0.8,   -0.8,   -0.8,   -0.9,   -1.0,   -1.0,   -1.0,   -1.1,   -1.1,   -1.0,   -0.9,   -0.9,   -0.9,   -0.8,   -0.8,   -0.9,   -1.0,   -0.9,   -0.5,   -0.4,  999.0,  999.0,  999.0,  999.0,  999.0,  999.0,  999.0,  999.0,  999.0,  999.0,  999.0,  999.0,  999.0,  999.0
2010/01/12 16:20,    0.0,    0.0,    0.0,    0.0,    0.0,    0.0,    0.0,    0.0,   -0.0,    0.0,   -0.0,   -0.0,    0.0,   -0.0,   -0.0,    0.0,    0.2,    0.2,    0.2,    0.2,   -0.0,    0.1,    0.0,  999.0,  999.0,  999.0,  999.0,  999.0,    0.0,    0.2,  999.0,  999.0,    0.1,    0.2,    0.1,    0.0,    0.1,    0.2,  999.0,  999.0,    0.2,    0.2,    0.0,  999.0,  999.0,  999.0,  999.0,  999.0,   -0.1,  999.0,  999.0,  999.0,  999.0,  999.0,  999.0,  999.0,   -1.5,   -1.4,   -1.5,   -1.4,   -1.4,   -1.2,   -1.2,   -1.2,   -1.1,   -1.0,   -1.0,   -1.0,   -1.0,   -1.0,   -1.0,   -1.0,   -1.0,   -1.1,   -1.1,   -1.0,   -0.9,   -1.0,   -0.9,   -0.9,   -1.0,  999.0,  999.0,  999.0,  999.0,  999.0,  999.0,  999.0,  999.0,  999.0,  999.0,  999.0,  999.0,  999.0,  999.0,  999.0,  999.0,  999.0
2010/01/12 16:30,   -0.0,    0.0,   -0.0,    0.0,    0.0,    0.0,    0.0,    0.0,   -0.0,    0.0,   -0.0,    0.0,    0.0,    0.0,    0.0,   -0.0,    0.1,    0.1,    0.1,    0.0,    0.1,   -0.1,    0.1,    0.0,  999.0,  999.0,  999.0,  999.0,  999.0,    0.0,    0.1,    0.2,    0.1,    0.1,    0.1,    0.1,    0.0,    0.2,    0.0,    0.1,    0.2,   -0.1,    0.1,  999.0,  999.0,  999.0,  999.0,  999.0,    0.0,    0.1,   -0.1,   -0.3,   -0.4,   -0.9,   -1.0,   -1.1,   -1.0,   -1.0,   -1.0,   -0.9,   -1.0,   -1.0,   -1.0,   -1.0,   -1.0,   -1.0,   -1.0,   -1.0,   -0.9,   -0.9,   -0.8,   -0.8,   -0.8,   -0.8,   -0.8,   -0.8,   -0.9,   -0.9,   -0.9,   -0.8,   -0.8,  999.0,  999.0,  999.0,  999.0,  999.0,  999.0,  999.0,  999.0,  999.0,  999.0,  999.0,  999.0,  999.0,  999.0,  999.0,  999.0,  999.0
2010/01/12 16:40,   -0.0,    0.0,    0.0,    0.0,    0.0,    0.0,   -0.0,   -0.0,   -0.0,    0.0,   -0.0,   -0.0,   -0.0,    0.0,   -0.0,    0.2,    0.2,    0.3,    0.4,    0.4,    0.4,    0.3,    0.2,    0.1,    0.1,    0.0,    0.1,  999.0,  999.0,  999.0,    0.1,    0.2,    0.2,    0.2,    0.2,    0.2,    0.2,    0.2,    0.2,    0.1,    0.1,    0.0,    0.3,    0.0,   -0.0,    0.0,  999.0,  999.0,  999.0,   -0.1,   -0.1,   -0.2,   -0.2,   -0.6,   -0.9,   -0.9,   -1.0,   -1.0,   -1.1,   -1.2,   -1.1,   -1.1,   -1.0,   -1.1,   -1.1,   -1.2,   -1.2,   -1.1,   -1.0,   -0.9,   -0.8,   -0.8,   -0.7,   -0.7,   -0.8,   -0.8,   -0.8,   -0.7,   -0.8,  999.0,  999.0,  999.0,  999.0,  999.0,  999.0,  999.0,  999.0,  999.0,  999.0,  999.0,  999.0,  999.0,  999.0,  999.0,   -0.4,  999.0,  999.0,  999.0
2010/01/12 16:50,   -0.0,   -0.0,    0.0,    0.0,    0.0,   -0.0,    0.0,    0.0,    0.0,    0.0,    0.0,    0.0,    0.0,    0.1,    0.0,    0.2,    0.4,    0.4,    0.4,    0.2,    0.1,    0.0,   -0.0,   -0.0,    0.0,    0.1,    0.1,    0.2,  999.0,  999.0,  999.0,  999.0,    0.2,    0.0,    0.2,    0.1,    0.1,    0.3,    0.2,    0.2,    0.1,    0.1,  999.0,   -0.0,   -0.1,    0.2,    0.1,   -0.0,  999.0,    0.1,  999.0,   -0.8,   -1.1,   -1.2,   -1.2,   -1.2,   -1.2,   -1.2,   -1.1,   -1.1,   -1.1,   -1.0,   -1.0,   -1.0,   -1.0,   -1.0,   -1.0,   -1.0,   -0.9,   -0.9,   -0.9,   -0.9,   -0.9,   -0.9,   -0.9,   -0.9,   -0.9,  999.0,  999.0,  999.0,  999.0,  999.0,  999.0,  999.0,  999.0,  999.0,  999.0,  999.0,  999.0,  999.0,  999.0,  999.0,  999.0,  999.0,  999.0,  999.0,  999.0,  999.0
2010/01/12 17:00,   -0.0,    0.0,    0.0,    0.0,    0.0,    0.0,    0.0,    0.0,   -0.0,    0.0,   -0.0,   -0.0,   -0.0,    0.0,    0.0,    0.1,    0.2,    0.2,    0.1,    0.1,  999.0,    0.0,    0.1,    0.0,   -0.0,    0.2,    0.0,   -0.0,   -0.1,   -0.2,   -0.3,   -0.3,   -0.3,   -0.2,   -0.1,   -0.1,   -0.1,    0.1,    0.1,  999.0,  999.0,   -0.0,   -0.1,   -0.1,   -0.1,   -0.1,    0.2,   -0.0,   -0.1,  999.0,  999.0,   -1.0,   -1.1,   -1.2,   -1.3,   -1.3,   -1.3,   -1.2,   -1.1,   -1.0,   -1.0,   -0.8,   -0.8,   -0.8,   -0.9,   -0.8,   -0.8,   -0.8,   -0.8,   -0.7,   -0.7,   -0.7,   -0.7,   -0.7,   -0.7,  999.0,  999.0,   -1.2,  999.0,  999.0,  999.0,  999.0,  999.0,  999.0,  999.0,  999.0,  999.0,  999.0,  999.0,  999.0,  999.0,  999.0,  999.0,  999.0,  999.0,  999.0,  999.0,  999.0
2010/01/12 17:10,    0.0,    0.0,    0.0,    0.0,    0.0,   -0.0,    0.0,   -0.1,   -0.0,    0.0,    0.0,   -0.0,    0.0,    0.2,    0.2,    0.4,    0.2,    0.0,  999.0,  999.0,  999.0,    0.0,    0.3,    0.4,  999.0,  999.0,    0.3,    0.6,    0.5,    0.4,    0.3,    0.3,    0.3,    0.1,    0.0,    0.3,    0.2,  999.0,  999.0,    0.2,   -0.1,   -0.2,   -0.2,  999.0,  999.0,   -0.1,    0.0,  999.0,  999.0,  999.0,  999.0,   -0.9,   -0.9,   -0.9,   -1.0,   -1.0,   -0.9,   -0.9,   -0.9,   -0.9,   -0.9,   -0.8,   -0.8,   -0.8,   -0.8,   -0.8,   -0.8,   -0.8,   -0.7,   -0.7,   -0.6,   -0.6,   -0.8,   -0.9,   -1.1,   -1.1,   -1.2,   -1.1,   -1.1,  999.0,   -1.1,  999.0,  999.0,  999.0,  999.0,  999.0,  999.0,  999.0,  999.0,  999.0,  999.0,  999.0,  999.0,  999.0,  999.0,  999.0,  999.0,  999.0
2010/01/12 17:20,    0.0,   -0.0,    0.0,    0.1,    0.0,    0.0,    0.1,    0.0,    0.0,    0.1,    0.0,    0.0,    0.0,    0.0,    0.1,    0.3,    0.4,    0.6,    0.4,    0.6,  999.0,    0.4,    0.3,    0.4,    0.4,    0.4,    0.4,  999.0,    0.4,    0.3,  999.0,  999.0,  999.0,  999.0,  999.0,    0.3,    0.3,  999.0,    0.3,   -0.1,   -0.0,   -0.1,   -0.3,  999.0,    0.1,  999.0,  999.0,  999.0,  999.0,  999.0,  999.0,  999.0,   -0.9,   -1.0,   -1.1,   -1.2,   -1.1,   -1.1,   -1.1,   -1.0,   -0.9,   -0.8,   -0.7,   -0.7,   -0.6,   -0.6,   -0.7,   -0.7,   -0.7,   -0.6,   -0.6,   -0.7,   -0.8,   -0.8,   -0.9,   -0.9,   -0.9,   -0.9,   -0.9,   -0.8,  999.0,  999.0,  999.0,  999.0,  999.0,  999.0,  999.0,  999.0,  999.0,  999.0,  999.0,  999.0,  999.0,  999.0,  999.0,  999.0,  999.0,  999.0
2010/01/12 17:30,    0.0,   -0.0,    0.0,    0.1,    0.1,    0.1,    0.0,    0.0,    0.0,    0.0,    0.0,    0.0,    0.0,    0.1,    0.0,    0.1,    0.1,    0.0,    0.3,    0.3,    0.4,    0.3,    0.2,    0.2,    0.1,  999.0,  999.0,  999.0,  999.0,  999.0,  999.0,  999.0,  999.0,  999.0,  999.0,  999.0,  999.0,  999.0,  999.0,   -0.1,  999.0,   -0.0,   -0.1,  999.0,  999.0,  999.0,   -0.1,  999.0,   -0.2,   -0.0,    0.1,  999.0,   -0.7,   -0.6,   -0.8,   -0.9,   -1.0,   -1.0,   -1.0,   -1.0,   -0.9,   -0.8,   -0.8,   -0.8,   -0.9,   -0.9,   -0.9,   -0.9,   -0.9,   -0.8,   -0.7,   -0.7,   -0.7,   -0.8,   -0.9,   -1.0,   -0.9,   -1.0,   -1.1,   -1.1,  999.0,  999.0,  999.0,  999.0,  999.0,  999.0,  999.0,  999.0,  999.0,  999.0,  999.0,  999.0,  999.0,  999.0,  999.0,  999.0,  999.0,  999.0
2010/01/12 17:40,    0.0,    0.0,    0.0,    0.0,    0.0,    0.0,    0.0,   -0.0,    0.0,    0.0,    0.0,   -0.0,   -0.0,   -0.0,    0.0,    0.0,    0.1,    0.4,    0.4,    0.4,    0.4,    0.5,    0.4,    0.4,    0.3,    0.2,    0.1,    0.0,  999.0,    0.2,  999.0,  999.0,   -0.5,   -0.4,   -0.3,   -0.4,   -0.4,   -0.3,   -0.4,   -0.3,   -0.2,  999.0,  999.0,  999.0,  999.0,  999.0,  999.0,    0.3,    0.2,    0.3,    0.3,    0.2,  999.0,   -0.9,   -0.9,   -1.1,   -1.2,   -1.2,   -1.2,   -1.2,   -1.1,   -1.0,   -1.0,   -0.9,   -0.8,   -0.8,   -0.9,   -0.9,   -0.9,   -0.9,   -0.8,   -0.8,   -0.9,   -1.0,   -1.1,   -1.2,   -1.2,   -1.1,   -1.1,   -1.1,  999.0,  999.0,  999.0,  999.0,  999.0,  999.0,  999.0,  999.0,  999.0,  999.0,  999.0,  999.0,  999.0,  999.0,  999.0,  999.0,  999.0,  999.0
2010/01/12 17:50,   -0.0,    0.0,    0.0,    0.0,    0.0,    0.0,   -0.0,    0.0,    0.0,    0.0,   -0.0,   -0.0,   -0.0,   -0.0,   -0.0,   -0.0,    0.1,    0.4,    0.2,    0.3,    0.4,    0.3,    0.3,    0.3,    0.2,    0.1,   -0.1,   -0.1,   -0.3,   -0.4,   -0.3,  999.0,   -0.3,   -0.4,   -0.5,   -0.5,   -0.4,   -0.3,   -0.3,   -0.2,   -0.1,   -0.2,  999.0,  999.0,  999.0,  999.0,  999.0,  999.0,  999.0,    0.4,    1.2,    0.8,   -0.3,   -1.2,   -1.5,   -1.7,   -1.7,   -1.7,   -1.6,   -1.6,   -1.5,   -1.3,   -1.2,   -1.1,   -1.0,   -0.9,   -0.8,   -0.8,   -0.7,   -0.7,   -0.7,   -0.7,   -0.8,   -0.8,   -0.9,   -1.0,   -0.9,   -0.9,  999.0,   -0.8,  999.0,  999.0,  999.0,  999.0,  999.0,  999.0,  999.0,  999.0,  999.0,  999.0,  999.0,  999.0,  999.0,  999.0,  999.0,  999.0,  999.0,  999.0
2010/01/12 18:00,    0.0,    0.0,    0.0,    0.0,    0.0,    0.0,    0.0,    0.0,    0.0,    0.0,    0.0,    0.0,    0.0,    0.1,    0.0,    0.1,    0.1,    0.1,    0.3,    0.3,    0.4,    0.4,    0.2,    0.1,   -0.0,   -0.0,   -0.1,   -0.1,  999.0,  999.0,  999.0,  999.0,  999.0,   -0.4,   -0.4,   -0.5,   -0.4,   -0.4,   -0.1,   -0.0,    0.0,    0.1,  999.0,  999.0,  999.0,  999.0,    0.5,    0.3,  999.0,    0.1,    0.2,   -0.0,   -0.8,   -1.5,   -1.4,   -1.5,   -1.3,   -1.4,   -1.3,   -1.2,   -1.0,   -0.9,   -0.9,   -0.9,   -0.8,   -0.8,   -0.8,   -0.8,   -0.8,   -0.8,   -0.8,   -0.8,   -0.8,   -0.9,   -1.0,  999.0,  999.0,   -1.0,  999.0,  999.0,  999.0,  999.0,  999.0,  999.0,  999.0,  999.0,  999.0,  999.0,  999.0,  999.0,  999.0,  999.0,  999.0,  999.0,  999.0,  999.0,  999.0,  999.0
2010/01/12 18:10,    0.0,    0.0,    0.0,    0.1,    0.0,    0.0,    0.0,    0.0,    0.0,    0.1,    0.0,    0.0,    0.0,    0.1,    0.0,    0.1,    0.2,    0.1,    0.1,    0.0,    0.0,   -0.0,   -0.0,   -0.1,   -0.1,   -0.0,  999.0,  999.0,  999.0,  999.0,  999.0,   -0.2,   -0.3,   -0.5,   -0.4,   -0.2,   -0.3,   -0.2,   -0.1,   -0.1,  999.0,    0.0,  999.0,  999.0,  999.0,  999.0,    0.4,    0.5,  999.0,    0.2,    0.3,    0.1,   -0.1,   -0.7,   -0.8,   -0.9,   -0.8,   -0.8,   -0.9,   -0.9,   -0.8,   -0.8,   -0.8,   -0.7,   -0.6,   -0.6,   -0.7,   -0.7,   -0.7,   -0.7,   -0.7,   -0.8,   -0.8,   -1.0,  999.0,   -1.1,   -1.1,  999.0,  999.0,  999.0,  999.0,   -0.7,  999.0,  999.0,  999.0,  999.0,  999.0,  999.0,  999.0,  999.0,  999.0,  999.0,  999.0,  999.0,  999.0,  999.0,  999.0,   -1.0
2010/01/12 18:20,   -0.0,    0.0,    0.0,    0.1,    0.0,    0.0,    0.0,    0.0,    0.0,    0.0,   -0.0,   -0.0,   -0.0,   -0.1,   -0.0,   -0.1,   -0.2,   -0.2,   -0.1,   -0.1,    0.0,    0.0,    0.1,    0.3,    0.3,    0.1,    0.0,  999.0,  999.0,  999.0,  999.0,  999.0,  999.0,  999.0,    0.1,   -0.1,    0.0,  999.0,  999.0,  999.0,  999.0,   -0.1,  999.0,  999.0,  999.0,  999.0,    0.3,    0.4,  999.0,  999.0,    0.3,   -0.0,   -0.1,   -0.4,   -0.9,   -1.2,   -1.4,   -1.3,   -1.2,   -1.2,   -1.2,   -1.2,   -1.1,   -1.0,   -0.9,   -0.8,   -0.8,   -0.8,   -0.8,   -0.8,   -0.7,   -0.7,   -0.6,  999.0,  999.0,  999.0,  999.0,  999.0,   -0.4,  999.0,  999.0,  999.0,  999.0,  999.0,  999.0,  999.0,  999.0,  999.0,  999.0,  999.0,  999.0,  999.0,  999.0,  999.0,  999.0,  999.0,  999.0,  999.0
2010/01/12 18:30,    0.0,    0.0,    0.0,    0.1,    0.0,    0.0,    0.0,    0.0,    0.0,    0.0,    0.0,    0.0,    0.0,    0.0,    0.0,    0.0,    0.0,    0.1,    0.1,    0.2,    0.1,    0.2,    0.3,    0.3,    0.1,    0.3,    0.3,    0.2,  999.0,  999.0,  999.0,   -0.3,   -0.2,   -0.4,   -0.2,   -0.1,   -0.3,   -0.2,  999.0,  999.0,  999.0,  999.0,  999.0,  999.0,  999.0,   -0.1,    0.0,  999.0,  999.0,  999.0,    0.3,    0.0,   -0.1,   -0.6,   -1.3,   -1.4,   -1.6,   -1.6,   -1.5,   -1.5,   -1.4,   -1.4,   -1.3,   -1.2,   -1.0,   -0.9,   -0.9,   -0.9,   -0.9,   -0.8,   -0.7,   -0.6,  999.0,  999.0,  999.0,  999.0,  999.0,  999.0,  999.0,  999.0,  999.0,  999.0,  999.0,  999.0,  999.0,  999.0,  999.0,  999.0,  999.0,  999.0,  999.0,  999.0,  999.0,  999.0,  999.0,  999.0,  999.0,  999.0
2010/01/12 18:40,    0.0,   -0.0,    0.0,    0.1,    0.0,    0.0,    0.0,    0.0,    0.0,    0.1,    0.0,   -0.0,    0.0,    0.1,    0.0,    0.0,    0.2,    0.2,    0.1,    0.2,    0.3,    0.1,   -0.1,    0.0,    0.4,    0.4,    0.6,    0.5,    0.4,    0.5,    0.4,    0.5,   -0.0,    0.1,    0.1,    0.2,   -0.1,    0.0,    0.1,  999.0,  999.0,  999.0,   -0.1,   -0.0,  999.0,  999.0,    0.0,    0.2,    0.2,    0.1,    0.3,    0.2,    0.1,    0.0,   -0.9,   -1.3,   -1.5,   -1.6,   -1.6,   -1.5,   -1.4,   -1.3,   -1.1,   -0.9,  999.0,   -0.6,   -0.6,   -0.5,   -0.6,  999.0,  999.0,  999.0,  999.0,  999.0,  999.0,  999.0,  999.0,  999.0,  999.0,  999.0,  999.0,  999.0,  999.0,  999.0,  999.0,  999.0,  999.0,  999.0,  999.0,  999.0,  999.0,  999.0,  999.0,  999.0,  999.0,  999.0,  999.0,  999.0
2010/01/12 18:50,    0.0,   -0.0,    0.0,    0.2,    0.1,    0.1,    0.1,    0.0,    0.1,    0.1,    0.1,    0.1,    0.1,    0.1,    0.1,    0.3,    0.3,    0.3,    0.4,    0.3,    0.3,    0.1,    0.1,    0.1,    0.1,    0.2,    0.1,    0.2,    0.3,    0.3,    0.3,  999.0,  999.0,  999.0,  999.0,    0.1,  999.0,  999.0,  999.0,  999.0,  999.0,  999.0,    0.1,  999.0,  999.0,   -0.1,    0.0,   -0.0,    0.0,    0.1,    0.1,    0.2,    0.2,    0.2,    0.2,   -0.4,   -1.0,   -1.2,   -1.3,   -1.3,   -1.3,   -1.2,   -1.0,  999.0,  999.0,  999.0,  999.0,  999.0,  999.0,  999.0,  999.0,  999.0,  999.0,  999.0,  999.0,  999.0,  999.0,  999.0,  999.0,  999.0,  999.0,  999.0,  999.0,  999.0,  999.0,  999.0,  999.0,  999.0,  999.0,  999.0,  999.0,  999.0,  999.0,  999.0,  999.0,  999.0,  999.0,  999.0
2010/01/12 19:00,    0.0,    0.0,    0.1,    0.1,    0.1,    0.1,    0.1,    0.0,    0.0,    0.1,    0.0,   -0.0,   -0.0,    0.1,    0.0,    0.2,    0.2,    0.2,    0.2,    0.3,    0.3,    0.3,    0.3,    0.3,    0.3,    0.4,    0.3,    0.3,    0.3,    0.3,    0.2,  999.0,  999.0,  999.0,    0.3,  999.0,  999.0,  999.0,  999.0,  999.0,  999.0,  999.0,    0.1,    0.0,   -0.1,   -0.2,  999.0,   -0.0,   -0.1,    0.0,    0.1,   -0.0,   -0.2,   -0.1,   -0.1,   -0.0,    0.1,   -0.0,   -0.8,  999.0,  999.0,  999.0,  999.0,  999.0,  999.0,  999.0,  999.0,  999.0,  999.0,  999.0,  999.0,  999.0,  999.0,  999.0,  999.0,  999.0,  999.0,  999.0,  999.0,  999.0,  999.0,  999.0,  999.0,  999.0,  999.0,  999.0,  999.0,  999.0,  999.0,  999.0,  999.0,  999.0,  999.0,  999.0,  999.0,  999.0,  999.0,  999.0
2010/01/12 19:10,    0.1,   -0.1,    0.1,    0.1,    0.1,    0.0,    0.0,    0.0,    0.0,    0.0,    0.0,    0.0,    0.0,    0.0,    0.0,    0.1,    0.2,    0.2,    0.2,    0.3,    0.3,    0.3,    0.2,    0.2,    0.3,    0.4,    0.4,    0.3,    0.2,    0.1,    0.1,    0.0,    0.1,    0.1,    0.1,    0.1,  999.0,  999.0,  999.0,  999.0,  999.0,   -0.1,   -0.1,    0.0,   -0.0,   -0.1,   -0.0,  999.0,  999.0,  999.0,  999.0,    0.2,    0.2,    0.2,    0.0,    0.3,    0.2,    0.1,    0.1,    0.1,  999.0,   -0.3,   -0.3,   -0.1,  999.0,  999.0,  999.0,  999.0,  999.0,  999.0,  999.0,  999.0,  999.0,  999.0,  999.0,  999.0,  999.0,  999.0,  999.0,  999.0,  999.0,  999.0,  999.0,  999.0,  999.0,  999.0,  999.0,  999.0,  999.0,  999.0,  999.0,  999.0,  999.0,  999.0,  999.0,  999.0,  999.0,  999.0
2010/01/12 19:20,   -0.1,    0.1,    0.0,    0.1,    0.1,   -0.0,    0.0,   -0.0,    0.0,    0.1,    0.0,    0.0,    0.0,    0.0,    0.0,    0.1,    0.2,    0.1,    0.1,    0.1,    0.1,    0.2,    0.2,    0.3,    0.2,    0.2,    0.2,    0.0,    0.1,    0.2,    0.1,    0.1,    0.2,    0.1,    0.0,  999.0,    0.2,    0.3,  999.0,  999.0,  999.0,    0.2,    0.3,    0.4,  999.0,    0.2,    0.1,  999.0,  999.0,  999.0,  999.0,  999.0,    0.1,    0.1,    0.1,   -0.1,   -0.1,   -0.1,   -0.2,   -0.2,   -1.2,   -1.0,   -0.7,   -0.5,  999.0,  999.0,  999.0,  999.0,  999.0,  999.0,  999.0,  999.0,  999.0,  999.0,  999.0,  999.0,  999.0,  999.0,  999.0,  999.0,  999.0,  999.0,  999.0,  999.0,  999.0,  999.0,  999.0,  999.0,  999.0,  999.0,  999.0,  999.0,  999.0,  999.0,  999.0,  999.0,  999.0,  999.0
2010/01/12 19:30,    0.0,   -0.1,    0.0,    0.1,    0.1,    0.1,  999.0,    0.0,    0.1,    0.1,    0.2,    0.1,    0.1,    0.1,    0.1,    0.3,    0.4,    0.3,    0.4,    0.3,    0.3,    0.3,    0.3,    0.3,    0.3,    0.4,    0.2,    0.1,    0.2,    0.2,    0.1,    0.2,    0.2,    0.3,    0.1,    0.0,    0.0,    0.1,  999.0,  999.0,  999.0,   -0.0,    0.1,    0.1,    0.0,    0.0,    0.1,  999.0,  999.0,  999.0,  999.0,  999.0,   -0.2,   -0.1,   -0.1,   -0.1,   -0.1,    0.0,   -0.1,  999.0,  999.0,   -1.2,   -1.0,   -0.7,   -0.4,   -0.2,    0.1,  999.0,  999.0,  999.0,  999.0,  999.0,  999.0,  999.0,  999.0,  999.0,  999.0,  999.0,  999.0,  999.0,  999.0,  999.0,  999.0,  999.0,  999.0,  999.0,  999.0,  999.0,  999.0,  999.0,  999.0,  999.0,  999.0,  999.0,  999.0,  999.0,  999.0,  999.0
2010/01/12 19:40,   -0.0,    0.1,    0.1,    0.1,    0.2,    0.3,    0.2,    0.2,    0.2,    0.1,    0.2,    0.1,    0.1,    0.0,    0.0,    0.3,    0.4,    0.4,    0.3,    0.4,    0.2,    0.2,    0.3,    0.3,    0.4,  999.0,  999.0,  999.0,  999.0,  999.0,    0.1,    0.2,   -0.0,    0.2,    0.0,    0.1,    0.0,   -0.0,    0.1,  999.0,  999.0,   -0.2,   -0.1,   -0.2,  999.0,  999.0,   -0.0,   -0.1,   -0.1,  999.0,  999.0,  999.0,    0.2,    0.1,   -0.0,    0.0,    0.1,    0.2,    0.2,    0.1,    0.1,  999.0,  999.0,  999.0,  999.0,  999.0,  999.0,  999.0,  999.0,  999.0,  999.0,  999.0,  999.0,  999.0,  999.0,  999.0,  999.0,  999.0,  999.0,  999.0,  999.0,  999.0,  999.0,  999.0,  999.0,  999.0,  999.0,  999.0,  999.0,  999.0,  999.0,  999.0,  999.0,  999.0,  999.0,  999.0,  999.0,  999.0
2010/01/12 19:50,    0.1,    0.0,    0.1,   -0.0,    0.1,    0.3,    0.3,    0.4,    0.3,    0.3,    0.2,    0.1,    0.1,    0.2,    0.1,    0.2,    0.3,    0.4,    0.4,    0.5,    0.5,    0.3,    0.3,    0.4,    0.3,    0.4,  999.0,  999.0,  999.0,  999.0,    0.3,    0.2,    0.3,    0.3,    0.2,    0.1,   -0.1,    0.0,    0.1,  999.0,  999.0,  999.0,  999.0,  999.0,  999.0,  999.0,   -0.0,   -0.1,   -0.1,  999.0,  999.0,   -0.1,   -0.1,   -0.0,    0.1,    0.2,    0.1,    0.1,    0.2,    0.1,    0.0,   -0.0,  999.0,  999.0,  999.0,  999.0,  999.0,  999.0,  999.0,  999.0,  999.0,  999.0,  999.0,  999.0,  999.0,  999.0,  999.0,  999.0,  999.0,  999.0,  999.0,  999.0,  999.0,  999.0,  999.0,  999.0,  999.0,  999.0,  999.0,  999.0,  999.0,  999.0,  999.0,  999.0,  999.0,  999.0,  999.0,  999.0
2010/01/12 20:00,    0.0,    0.1,    0.2,    0.3,    0.3,    0.4,    0.3,    0.1,    0.2,    0.3,    0.2,    0.2,    0.2,    0.3,    0.2,    0.3,    0.5,    0.5,    0.5,    0.4,    0.4,    0.4,    0.4,    0.5,    0.3,    0.3,  999.0,    0.2,    0.3,    0.3,    0.3,    0.3,    0.3,    0.3,    0.2,    0.1,    0.1,    0.1,    0.0,   -0.1,    0.1,  999.0,  999.0,  999.0,  999.0,   -0.2,   -0.4,  999.0,  999.0,  999.0,  999.0,  999.0,    0.1,    0.1,    0.1,    0.1,    0.2,    0.2,    0.1,    0.0,    0.1,    0.1,  999.0,    0.0,  999.0,  999.0,  999.0,  999.0,  999.0,  999.0,  999.0,  999.0,  999.0,  999.0,  999.0,  999.0,  999.0,  999.0,  999.0,  999.0,  999.0,  999.0,  999.0,  999.0,  999.0,  999.0,  999.0,  999.0,  999.0,  999.0,  999.0,  999.0,  999.0,  999.0,   -0.2,  999.0,  999.0,  999.0
2010/01/12 20:10,    0.0,    0.1,    0.1,    0.1,    0.1,  999.0,  999.0,    0.1,    0.0,    0.2,    0.0,    0.1,    0.2,    0.2,    0.1,    0.2,    0.1,    0.2,    0.2,    0.1,    0.1,    0.1,    0.1,    0.1,    0.0,    0.1,   -0.2,    0.1,    0.1,    0.1,    0.2,    0.3,    0.4,    0.5,    0.5,    0.5,    0.4,    0.5,    0.4,    0.4,    0.5,  999.0,    0.7,    0.6,  999.0,  999.0,  999.0,  999.0,  999.0,  999.0,  999.0,  999.0,   -0.1,   -0.1,   -0.1,   -0.1,   -0.1,   -0.0,    0.1,    0.1,    0.0,   -0.0,  999.0,  999.0,  999.0,  999.0,  999.0,  999.0,  999.0,  999.0,  999.0,  999.0,  999.0,  999.0,  999.0,  999.0,  999.0,  999.0,  999.0,  999.0,  999.0,  999.0,  999.0,  999.0,  999.0,  999.0,  999.0,  999.0,  999.0,  999.0,  999.0,  999.0,  999.0,  999.0,  999.0,  999.0,  999.0,  999.0
2010/01/12 20:20,    0.0,    0.0,    0.0,    0.1,    0.1,    0.1,    0.1,    0.0,    0.1,    0.1,    0.1,   -0.0,    0.0,    0.1,    0.0,    0.1,   -0.0,   -0.0,   -0.0,   -0.0,    0.0,   -0.0,    0.1,    0.2,    0.1,    0.2,    0.3,    0.2,    0.3,    0.2,    0.2,    0.1,    0.1,    0.0,    0.1,    0.1,   -0.0,    0.2,    0.2,    0.1,    0.1,  999.0,  999.0,  999.0,  999.0,  999.0,  999.0,  999.0,  999.0,  999.0,  999.0,    0.2,    0.3,    0.2,    0.3,    0.3,    0.3,    0.3,    0.3,  999.0,    0.2,   -0.0,    0.2,  999.0,  999.0,  999.0,  999.0,  999.0,  999.0,  999.0,  999.0,  999.0,  999.0,  999.0,  999.0,  999.0,  999.0,  999.0,  999.0,  999.0,  999.0,  999.0,  999.0,  999.0,  999.0,  999.0,  999.0,  999.0,  999.0,  999.0,  999.0,  999.0,  999.0,  999.0,  999.0,  999.0,  999.0,  999.0
2010/01/12 20:30,    0.0,    0.0,    0.0,    0.2,    0.1,    0.1,    0.1,    0.1,    0.1,    0.2,    0.2,    0.1,    0.2,    0.2,    0.2,    0.2,    0.2,    0.3,    0.3,  999.0,    0.4,    0.4,    0.4,    0.5,    0.4,    0.6,    0.5,  999.0,    0.5,    0.6,    0.5,    0.4,    0.4,    0.3,    0.3,    0.2,    0.3,    0.2,  999.0,    0.2,  999.0,  999.0,  999.0,   -0.2,  999.0,  999.0,  999.0,  999.0,  999.0,  999.0,  999.0,    0.1,   -0.0,   -0.1,    0.0,   -0.1,   -0.1,   -0.0,   -0.1,   -0.1,   -0.2,  999.0,  999.0,  999.0,  999.0,  999.0,  999.0,  999.0,  999.0,  999.0,  999.0,  999.0,  999.0,  999.0,  999.0,  999.0,  999.0,  999.0,  999.0,  999.0,  999.0,  999.0,  999.0,  999.0,  999.0,  999.0,  999.0,  999.0,  999.0,  999.0,  999.0,  999.0,  999.0,  999.0,  999.0,  999.0,  999.0,  999.0
2010/01/12 20:40,    0.0,    0.1,    0.1,    0.1,    0.1,    0.2,    0.1,    0.1,    0.1,    0.2,    0.1,    0.2,    0.2,    0.2,    0.1,    0.3,    0.3,    0.4,    0.4,    0.4,    0.4,    0.4,    0.5,    0.5,    0.3,    0.5,    0.4,  999.0,    0.3,    0.5,    0.5,    0.5,    0.4,    0.4,    0.4,    0.3,    0.2,    0.1,    0.1,    0.1,    0.0,  999.0,   -0.1,   -0.1,   -0.1,  999.0,   -0.2,  999.0,   -0.2,    0.1,   -0.0,    0.0,    0.1,    0.0,    0.1,    0.1,   -0.0,  999.0,   -0.1,   -0.2,    0.1,    0.2,    0.4,  999.0,  999.0,  999.0,  999.0,  999.0,  999.0,  999.0,  999.0,  999.0,  999.0,  999.0,  999.0,  999.0,  999.0,  999.0,  999.0,  999.0,  999.0,  999.0,  999.0,  999.0,  999.0,  999.0,  999.0,  999.0,  999.0,  999.0,  999.0,  999.0,  999.0,  999.0,  999.0,  999.0,  999.0,  999.0
2010/01/12 20:50,    0.0,   -0.0,    0.0,    0.1,    0.0,    0.0,   -0.0,    0.0,    0.0,    0.0,    0.0,    0.1,    0.1,    0.1,    0.0,    0.2,    0.3,    0.2,    0.2,    0.1,    0.2,    0.1,    0.2,    0.1,    0.1,    0.1,    0.1,    0.0,    0.0,   -0.0,    0.1,    0.1,    0.1,   -0.1,    0.0,    0.0,   -0.0,   -0.1,   -0.2,  999.0,  999.0,  999.0,  999.0,  999.0,    0.1,  999.0,  999.0,  999.0,  999.0,  999.0,    0.4,    0.4,    0.5,  999.0,    0.1,    0.1,    0.1,  999.0,   -0.0,    0.1,    0.2,    0.2,    0.3,    0.2,  999.0,  999.0,  999.0,  999.0,  999.0,  999.0,  999.0,  999.0,  999.0,  999.0,  999.0,  999.0,  999.0,  999.0,   -0.1,  999.0,  999.0,  999.0,  999.0,  999.0,  999.0,  999.0,  999.0,  999.0,  999.0,  999.0,  999.0,  999.0,  999.0,  999.0,  999.0,  999.0,  999.0,  999.0
2010/01/12 21:00,   -0.8,   -1.1,   -1.1,   -1.1,   -1.0,   -0.9,   -0.9,   -0.8,   -0.6,   -0.5,   -0.2,   -0.1,   -0.3,   -0.3,   -0.1,   -0.1,   -0.1,    0.1,    0.1,    0.1,    0.1,    0.1,    0.1,    0.0,    0.1,    0.1,    0.2,    0.1,   -0.0,    0.0,   -0.2,   -0.1,   -0.2,   -0.2,   -0.3,   -0.3,   -0.1,   -0.1,   -0.1,   -0.1,  999.0,  999.0,  999.0,  999.0,  999.0,  999.0,  999.0,  999.0,    0.2,  999.0,  999.0,  999.0,    0.6,    0.4,    0.2,    0.1,    0.1,  999.0,   -0.1,   -0.2,   -0.2,   -0.1,   -0.1,   -0.0,  999.0,  999.0,  999.0,  999.0,  999.0,  999.0,  999.0,  999.0,  999.0,  999.0,  999.0,  999.0,  999.0,  999.0,  999.0,  999.0,  999.0,  999.0,  999.0,  999.0,  999.0,  999.0,  999.0,  999.0,  999.0,  999.0,  999.0,  999.0,  999.0,  999.0,  999.0,  999.0,  999.0,  999.0
2010/01/12 21:10,    0.0,    0.0,    0.1,    0.1,    0.1,    0.0,    0.0,   -0.0,   -0.0,    0.1,   -0.0,   -0.0,    0.0,    0.1,    0.0,   -0.0,    0.4,    0.5,    0.5,    0.5,    0.4,    0.4,    0.3,    0.3,    0.3,    0.2,    0.2,    0.2,    0.2,    0.1,    0.1,    0.3,    0.1,   -0.1,    0.1,    0.2,    0.0,   -0.2,   -0.3,   -0.5,   -0.5,    0.2,   -0.2,   -0.0,   -0.0,   -0.3,  999.0,  999.0,  999.0,    0.1,  999.0,  999.0,   -0.0,   -0.0,  999.0,   -0.1,   -0.1,   -0.2,   -0.1,   -0.0,   -0.1,   -0.1,   -0.1,  999.0,  999.0,  999.0,  999.0,  999.0,  999.0,  999.0,  999.0,  999.0,  999.0,  999.0,  999.0,  999.0,  999.0,  999.0,  999.0,  999.0,  999.0,  999.0,  999.0,  999.0,  999.0,  999.0,  999.0,  999.0,  999.0,  999.0,  999.0,  999.0,  999.0,  999.0,  999.0,  999.0,  999.0,  999.0
2010/01/12 21:20,    0.1,    0.0,    0.1,    0.2,    0.2,    0.1,    0.1,    0.1,    0.1,    0.1,    0.0,    0.0,    0.1,    0.2,    0.1,    0.4,    0.4,    0.4,    0.5,    0.5,    0.4,    0.4,    0.4,    0.5,    0.5,    0.4,    0.4,    0.4,    0.3,    0.2,    0.2,    0.2,    0.3,   -0.2,   -0.0,   -0.2,   -0.3,   -0.4,   -0.4,   -0.5,  999.0,   -0.4,  999.0,   -0.1,   -0.1,    0.0,    0.2,   -0.0,    0.1,    0.0,   -0.0,  999.0,    0.0,   -0.1,   -0.0,    0.0,    0.1,    0.1,    0.2,    0.3,  999.0,  999.0,  999.0,  999.0,  999.0,  999.0,  999.0,  999.0,  999.0,  999.0,  999.0,  999.0,  999.0,  999.0,  999.0,  999.0,  999.0,  999.0,  999.0,  999.0,  999.0,  999.0,  999.0,  999.0,  999.0,  999.0,  999.0,  999.0,  999.0,  999.0,  999.0,  999.0,  999.0,  999.0,  999.0,  999.0,  999.0,  999.0
2010/01/12 21:30,    0.0,    0.1,    0.2,    0.2,    0.1,    0.2,    0.2,    0.0,    0.0,    0.1,    0.0,    0.0,    0.0,    0.2,    0.1,    0.3,    0.3,    0.2,    0.2,    0.1,    0.1,    0.1,    0.1,    0.3,    0.3,    0.2,    0.3,    0.4,    0.5,    0.3,    0.6,    0.4,   -0.0,    0.0,   -0.1,   -0.1,   -0.3,   -0.3,   -0.4,   -0.4,   -0.6,   -0.3,   -0.2,   -0.2,   -0.1,   -0.1,  999.0,  999.0,  999.0,   -0.0,    0.0,  999.0,  999.0,  999.0,  999.0,    0.1,    0.1,    0.2,    0.2,    0.2,    0.3,  999.0,  999.0,  999.0,  999.0,  999.0,  999.0,  999.0,  999.0,  999.0,  999.0,  999.0,  999.0,  999.0,  999.0,  999.0,  999.0,  999.0,  999.0,  999.0,  999.0,  999.0,  999.0,  999.0,  999.0,  999.0,  999.0,  999.0,  999.0,  999.0,  999.0,  999.0,  999.0,  999.0,  999.0,  999.0,  999.0,  999.0
2010/01/12 21:40,    0.1,    0.1,    0.1,    0.2,    0.1,    0.0,    0.0,    0.0,    0.0,    0.1,    0.0,    0.0,    0.0,    0.1,    0.1,    0.2,    0.2,    0.0,    0.1,    0.1,    0.1,    0.1,    0.1,   -0.1,   -0.1,   -0.0,   -0.1,   -0.1,   -0.1,   -0.1,    0.1,   -0.0,    0.0,    0.0,   -0.2,   -0.2,   -0.3,   -0.3,   -0.2,   -0.1,   -0.1,    0.2,    0.2,    0.1,    0.1,    0.1,    0.0,  999.0,  999.0,  999.0,  999.0,  999.0,  999.0,  999.0,  999.0,   -0.1,  999.0,  999.0,    0.0,    0.1,    0.0,  999.0,  999.0,  999.0,  999.0,  999.0,  999.0,  999.0,  999.0,  999.0,  999.0,  999.0,  999.0,  999.0,  999.0,  999.0,  999.0,  999.0,  999.0,  999.0,  999.0,  999.0,  999.0,  999.0,  999.0,  999.0,  999.0,  999.0,  999.0,  999.0,  999.0,  999.0,  999.0,  999.0,  999.0,  999.0,  999.0,  999.0
2010/01/12 21:50,    0.0,    0.0,    0.1,    0.2,    0.1,    0.0,    0.1,    0.1,    0.1,    0.1,    0.0,    0.0,    0.0,    0.1,    0.0,    0.1,   -0.0,    0.1,    0.1,    0.0,    0.0,    0.1,    0.0,   -0.1,   -0.0,   -0.2,   -0.2,   -0.1,   -0.2,   -0.2,   -0.2,   -0.2,   -0.1,   -0.1,   -0.1,   -0.1,   -0.2,   -0.4,   -0.1,   -0.1,   -0.3,   -0.0,    0.0,    0.1,    0.1,    0.2,    0.2,  999.0,  999.0,  999.0,  999.0,  999.0,  999.0,  999.0,  999.0,  999.0,  999.0,    0.2,  999.0,   -0.0,   -0.1,  999.0,  999.0,  999.0,  999.0,  999.0,  999.0,  999.0,  999.0,  999.0,  999.0,  999.0,  999.0,  999.0,  999.0,  999.0,  999.0,  999.0,  999.0,  999.0,  999.0,  999.0,  999.0,  999.0,  999.0,  999.0,  999.0,  999.0,  999.0,  999.0,  999.0,  999.0,  999.0,  999.0,  999.0,  999.0,  999.0,  999.0
2010/01/12 22:00,    0.0,    0.0,    0.1,    0.2,    0.1,    0.0,    0.1,    0.1,    0.1,    0.1,    0.0,    0.0,    0.0,    0.1,    0.1,    0.2,    0.1,    0.1,    0.1,   -0.0,    0.2,    0.2,    0.1,    0.3,  999.0,  999.0,  999.0,    0.3,    0.3,    0.3,    0.2,    0.2,    0.3,    0.1,    0.1,    0.1,    0.1,   -0.1,  999.0,  999.0,    0.1,   -0.0,    0.0,   -0.0,   -0.0,    0.0,    0.1,  999.0,  999.0,   -0.1,  999.0,  999.0,  999.0,   -0.0,  999.0,    0.0,    0.1,  999.0,  999.0,    0.1,    0.1,  999.0,  999.0,  999.0,  999.0,  999.0,  999.0,  999.0,    0.3,  999.0,  999.0,  999.0,  999.0,  999.0,  999.0,  999.0,  999.0,  999.0,  999.0,  999.0,  999.0,  999.0,  999.0,  999.0,  999.0,  999.0,  999.0,  999.0,  999.0,    0.3,  999.0,  999.0,  999.0,  999.0,  999.0,  999.0,    0.2,  999.0
2010/01/12 22:10,    0.0,    0.0,    0.1,    0.2,    0.1,    0.0,    0.1,    0.1,    0.1,    0.2,    0.0,    0.1,    0.0,    0.2,    0.0,    0.2,    0.3,    0.4,    0.5,    0.5,  999.0,    0.3,    0.3,    0.2,    0.2,    0.2,    0.3,    0.1,  999.0,    0.0,    0.0,    0.0,  999.0,  999.0,  999.0,   -0.0,    0.1,    0.0,  999.0,  999.0,    0.1,    0.1,    0.2,    0.2,    0.3,    0.1,    0.1,  999.0,  999.0,    0.0,    0.2,   -0.0,  999.0,    0.2,  999.0,   -0.2,   -0.1,  999.0,   -0.1,   -0.2,  999.0,  999.0,  999.0,  999.0,  999.0,  999.0,  999.0,  999.0,  999.0,  999.0,  999.0,  999.0,  999.0,  999.0,  999.0,  999.0,  999.0,  999.0,  999.0,  999.0,  999.0,  999.0,  999.0,  999.0,  999.0,  999.0,  999.0,  999.0,  999.0,  999.0,  999.0,  999.0,  999.0,  999.0,  999.0,  999.0,  999.0,  999.0
2010/01/12 22:20,    0.1,    0.1,    0.1,    0.2,    0.1,    0.0,    0.1,    0.0,    0.0,    0.0,    0.0,    0.0,    0.1,    0.1,    0.0,    0.1,    0.3,    0.3,    0.3,    0.4,    0.4,    0.3,    0.3,    0.1,    0.3,    0.2,    0.3,  999.0,  999.0,  999.0,    0.1,    0.2,  999.0,  999.0,  999.0,    0.3,    0.2,  999.0,    0.1,  999.0,  999.0,   -0.1,   -0.1,  999.0,   -0.2,   -0.1,   -0.1,   -0.2,  999.0,   -0.1,   -0.1,    0.0,    0.0,    0.1,    0.1,  999.0,  999.0,  999.0,  999.0,  999.0,  999.0,  999.0,  999.0,  999.0,  999.0,  999.0,  999.0,  999.0,  999.0,  999.0,  999.0,  999.0,  999.0,  999.0,  999.0,  999.0,  999.0,  999.0,  999.0,  999.0,  999.0,  999.0,  999.0,  999.0,  999.0,  999.0,  999.0,  999.0,  999.0,  999.0,  999.0,  999.0,  999.0,  999.0,  999.0,  999.0,  999.0,  999.0
2010/01/12 22:30,    0.0,    0.2,    0.1,    0.2,    0.1,    0.0,    0.1,    0.1,    0.1,    0.1,    0.0,    0.0,    0.0,    0.0,    0.0,    0.1,  999.0,    0.2,    0.3,    0.4,    0.3,    0.4,    0.3,  999.0,    0.4,    0.3,    0.5,  999.0,  999.0,  999.0,  999.0,  999.0,    0.2,  999.0,  999.0,  999.0,  999.0,   -0.1,    0.1,  999.0,   -0.0,    0.0,   -0.1,  999.0,    0.0,   -0.0,  999.0,    0.0,    0.1,    0.1,   -0.0,    0.0,    0.2,    0.1,  999.0,  999.0,  999.0,  999.0,  999.0,    0.0,  999.0,  999.0,  999.0,  999.0,  999.0,  999.0,  999.0,  999.0,  999.0,  999.0,  999.0,  999.0,  999.0,  999.0,  999.0,  999.0,  999.0,  999.0,  999.0,  999.0,  999.0,  999.0,  999.0,  999.0,  999.0,  999.0,  999.0,  999.0,  999.0,  999.0,  999.0,  999.0,  999.0,  999.0,  999.0,  999.0,  999.0,  999.0
2010/01/12 22:40,    0.1,    0.1,    0.2,    0.2,    0.1,    0.1,    0.1,    0.1,    0.1,    0.0,    0.1,    0.1,    0.1,    0.1,    0.1,    0.1,  999.0,    0.4,    0.4,    0.5,    0.4,    0.4,    0.4,    0.3,    0.4,  999.0,  999.0,  999.0,  999.0,  999.0,  999.0,  999.0,  999.0,  999.0,  999.0,    0.3,    0.4,    0.3,  999.0,  999.0,    0.2,  999.0,  999.0,  999.0,    0.1,    0.2,    0.1,    0.1,  999.0,    0.0,    0.1,    0.1,  999.0,  999.0,  999.0,   -0.0,  999.0,  999.0,   -0.2,   -0.1,   -0.1,  999.0,  999.0,  999.0,  999.0,  999.0,  999.0,  999.0,  999.0,  999.0,  999.0,  999.0,  999.0,  999.0,  999.0,  999.0,  999.0,  999.0,  999.0,  999.0,  999.0,  999.0,  999.0,  999.0,  999.0,  999.0,  999.0,  999.0,  999.0,  999.0,  999.0,  999.0,  999.0,  999.0,  999.0,  999.0,  999.0,  999.0
2010/01/12 22:50,    0.1,    0.0,    0.1,    0.2,    0.1,    0.1,    0.1,    0.1,    0.1,    0.0,    0.0,    0.1,    0.1,    0.1,    0.1,    0.1,    0.2,    0.3,    0.3,    0.3,    0.4,    0.3,    0.3,    0.3,    0.2,    0.4,    0.4,    0.5,    0.5,  999.0,  999.0,  999.0,    0.4,  999.0,  999.0,  999.0,    0.3,    0.2,    0.2,    0.1,    0.1,    0.0,  999.0,   -0.0,  999.0,    0.1,  999.0,    0.3,    0.2,    0.2,    0.1,  999.0,  999.0,  999.0,  999.0,  999.0,  999.0,  999.0,    0.0,    0.1,  999.0,  999.0,  999.0,  999.0,  999.0,  999.0,  999.0,  999.0,  999.0,  999.0,  999.0,  999.0,  999.0,  999.0,  999.0,  999.0,  999.0,  999.0,  999.0,  999.0,  999.0,  999.0,  999.0,  999.0,  999.0,  999.0,  999.0,  999.0,  999.0,  999.0,  999.0,  999.0,  999.0,  999.0,  999.0,  999.0,  999.0,  999.0
2010/01/12 23:00,    0.1,    0.0,    0.1,    0.2,    0.1,    0.1,    0.1,    0.1,    0.1,    0.1,    0.0,    0.1,    0.1,   -0.0,    0.0,    0.1,    0.1,    0.3,    0.3,    0.4,    0.4,    0.3,    0.3,    0.3,    0.4,    0.3,    0.3,    0.5,    0.5,    0.5,    0.4,  999.0,  999.0,  999.0,    0.4,  999.0,  999.0,  999.0,  999.0,    0.2,    0.1,    0.1,    0.2,    0.1,    0.0,  999.0,  999.0,  999.0,  999.0,  999.0,    0.1,    0.1,  999.0,    0.0,    0.0,    0.1,    0.1,  999.0,   -0.4,    0.0,    0.0,  999.0,  999.0,  999.0,  999.0,  999.0,  999.0,  999.0,  999.0,  999.0,  999.0,  999.0,  999.0,  999.0,  999.0,  999.0,  999.0,  999.0,  999.0,  999.0,  999.0,  999.0,  999.0,  999.0,  999.0,  999.0,  999.0,  999.0,  999.0,  999.0,  999.0,  999.0,  999.0,  999.0,  999.0,  999.0,  999.0,  999.0
2010/01/12 23:10,    0.1,    0.0,    0.1,    0.2,    0.1,    0.1,    0.1,    0.1,    0.1,    0.0,    0.1,    0.0,    0.0,   -0.0,    0.0,    0.0,  999.0,  999.0,   -0.0,    0.1,    0.2,    0.1,    0.2,    0.3,    0.3,    0.3,    0.3,  999.0,  999.0,  999.0,  999.0,  999.0,    0.2,    0.3,  999.0,  999.0,  999.0,  999.0,  999.0,  999.0,   -0.2,   -0.2,   -0.2,   -0.2,   -0.2,   -0.1,   -0.1,    0.1,  999.0,    0.1,    0.0,  999.0,  999.0,  999.0,  999.0,    0.0,    0.1,  999.0,   -0.0,   -0.0,  999.0,  999.0,  999.0,  999.0,  999.0,  999.0,  999.0,  999.0,  999.0,  999.0,  999.0,  999.0,  999.0,  999.0,  999.0,  999.0,  999.0,  999.0,  999.0,  999.0,  999.0,  999.0,  999.0,  999.0,  999.0,  999.0,  999.0,  999.0,  999.0,  999.0,  999.0,  999.0,  999.0,  999.0,  999.0,  999.0,  999.0,  999.0
2010/01/12 23:20,    0.0,   -0.0,    0.1,    0.2,    0.1,    0.1,    0.0,    0.1,    0.1,    0.0,    0.0,    0.0,    0.0,    0.0,    0.0,    0.1,  999.0,    0.0,   -0.0,   -0.0,    0.0,    0.1,    0.1,  999.0,    0.3,    0.3,    0.1,    0.2,  999.0,  999.0,  999.0,  999.0,  999.0,  999.0,  999.0,  999.0,  999.0,    0.1,  999.0,  999.0,  999.0,   -0.2,   -0.2,   -0.1,   -0.2,   -0.3,   -0.0,    0.0,   -0.0,    0.1,    0.1,  999.0,  999.0,    0.0,  999.0,    0.1,  999.0,  999.0,   -0.0,    0.0,  999.0,  999.0,  999.0,  999.0,  999.0,  999.0,  999.0,  999.0,  999.0,  999.0,  999.0,  999.0,  999.0,  999.0,  999.0,  999.0,  999.0,  999.0,  999.0,  999.0,  999.0,  999.0,  999.0,  999.0,  999.0,  999.0,  999.0,  999.0,  999.0,  999.0,  999.0,  999.0,  999.0,  999.0,  999.0,  999.0,  999.0,  999.0
2010/01/12 23:30,    0.1,    0.0,    0.1,    0.2,    0.1,    0.1,    0.1,    0.1,    0.1,    0.1,    0.2,    0.2,    0.1,    0.1,    0.1,    0.3,    0.3,  999.0,    0.3,    0.3,    0.3,    0.3,    0.3,    0.4,    0.3,    0.1,    0.3,    0.2,    0.3,    0.4,  999.0,    0.3,    0.2,    0.1,    0.0,  999.0,  999.0,    0.1,    0.3,    0.1,    0.1,   -0.0,   -0.1,   -0.1,   -0.0,  999.0,  999.0,  999.0,   -0.1,  999.0,   -0.0,    0.0,  999.0,  999.0,  999.0,  999.0,    0.1,  999.0,    0.1,    0.1,  999.0,  999.0,  999.0,  999.0,  999.0,  999.0,  999.0,  999.0,  999.0,  999.0,  999.0,  999.0,  999.0,  999.0,  999.0,  999.0,  999.0,  999.0,  999.0,  999.0,  999.0,  999.0,  999.0,  999.0,  999.0,  999.0,  999.0,  999.0,  999.0,    0.1,  999.0,  999.0,  999.0,  999.0,  999.0,  999.0,  999.0,  999.0
2010/01/12 23:40,    0.0,    0.1,    0.2,    0.2,    0.1,    0.0,    0.1,    0.0,    0.1,    0.1,    0.0,    0.0,    0.0,   -0.0,    0.0,    0.0,    0.2,    0.2,    0.2,    0.3,    0.2,    0.2,    0.3,    0.3,    0.3,    0.1,  999.0,    0.5,  999.0,    0.4,    0.4,  999.0,    0.1,    0.3,    0.2,  999.0,  999.0,  999.0,  999.0,   -0.0,  999.0,   -0.1,   -0.0,    0.0,  999.0,  999.0,  999.0,  999.0,   -0.1,   -0.1,   -0.3,  999.0,  999.0,  999.0,  999.0,  999.0,  999.0,  999.0,  999.0,   -0.0,    0.1,  999.0,  999.0,  999.0,  999.0,  999.0,  999.0,  999.0,  999.0,  999.0,  999.0,  999.0,  999.0,  999.0,  999.0,  999.0,  999.0,  999.0,  999.0,  999.0,  999.0,  999.0,  999.0,  999.0,  999.0,  999.0,  999.0,  999.0,  999.0,  999.0,  999.0,  999.0,  999.0,  999.0,  999.0,  999.0,  999.0,  999.0
2010/01/12 23:50,    0.1,    0.1,    0.1,    0.2,    0.1,   -0.0,    0.1,    0.1,    0.0,   -0.1,    0.0,    0.0,    0.0,   -0.0,    0.0,    0.0,  999.0,    0.1,    0.1,    0.2,    0.2,    0.2,    0.3,    0.3,    0.2,    0.3,  999.0,  999.0,    0.4,  999.0,    0.2,    0.2,    0.2,  999.0,    0.2,  999.0,  999.0,  999.0,  999.0,    0.2,    0.2,  999.0,  999.0,  999.0,  999.0,   -0.0,  999.0,   -0.0,  999.0,   -0.0,    0.0,   -0.0,  999.0,  999.0,  999.0,    0.0,  999.0,  999.0,  999.0,  999.0,   -0.1,  999.0,  999.0,  999.0,  999.0,  999.0,  999.0,  999.0,  999.0,  999.0,  999.0,  999.0,  999.0,  999.0,  999.0,  999.0,  999.0,  999.0,  999.0,  999.0,  999.0,  999.0,  999.0,  999.0,  999.0,  999.0,  999.0,  999.0,  999.0,  999.0,  999.0,  999.0,  999.0,  999.0,  999.0,  999.0,  999.0,  999.0
